KJ6MC Weather Reports


time (UTC)temp
C
wind
direction
speed
KPH
gust
KPH
rain 1hr
cm
rain 24hr
cm
rain mn
cm
humidity
%
barometer
mb
20260509160916 18 211 3.2 9.7 0.00 0.00 0.00 76 1014.0
20260509160818 18 224 3.2 9.7 0.00 0.00 0.00 77 1014.0
20260509160717 17 236 3.2 9.7 0.00 0.00 0.00 77 1014.0
20260509160615 17 228 3.2 9.7 0.00 0.00 0.00 77 1014.1
20260509160512 17 229 3.2 9.7 0.00 0.00 0.00 77 1014.0
20260509160407 17 238 1.6 9.7 0.00 0.00 0.00 76 1014.0
20260509160314 17 235 1.6 9.7 0.00 0.00 0.00 77 1014.1
20260509160307 17 161 1.6 9.7 0.00 0.00 0.00 77 1014.1
20260509160206 17 204 1.6 9.7 0.00 0.00 0.00 76 1014.1
20260509160107 17 245 1.6 9.7 0.00 0.00 0.00 76 1014.1
20260509160006 17 243 1.6 9.7 0.00 0.00 0.00 78 1014.1
20260509155902 17 222 1.6 9.7 0.00 0.00 0.00 78 1014.1
20260509155815 17 223 3.2 11.3 0.00 0.00 0.00 79 1014.0
20260509155801 17 236 3.2 11.3 0.00 0.00 0.00 79 1014.0
20260509155701 17 236 3.2 11.3 0.00 0.00 0.00 79 1014.0
20260509155601 17 236 4.8 11.3 0.00 0.00 0.00 80 1014.0
20260509155458 17 185 4.8 11.3 0.00 0.00 0.00 80 1014.0
20260509155354 16 184 4.8 11.3 0.00 0.00 0.00 80 1014.0
20260509155314 16 219 4.8 11.3 0.00 0.00 0.00 80 1014.0
20260509155255 16 172 4.8 11.3 0.00 0.00 0.00 80 1014.0
20260509155155 16 232 4.8 11.3 0.00 0.00 0.00 80 1014.0
20260509155054 16 222 4.8 11.3 0.00 0.00 0.00 79 1014.1
20260509154952 16 239 4.8 11.3 0.00 0.00 0.00 79 1014.0
20260509154846 16 195 4.8 11.3 0.00 0.00 0.00 79 1014.0
20260509154809 16 250 4.8 11.3 0.00 0.00 0.00 79 1014.0
20260509154746 16 235 4.8 9.7 0.00 0.00 0.00 79 1014.0
20260509154646 16 238 4.8 9.7 0.00 0.00 0.00 79 1014.0
20260509154547 16 146 3.2 9.7 0.00 0.00 0.00 80 1014.0
20260509154446 16 231 3.2 9.7 0.00 0.00 0.00 79 1013.9
20260509154341 16 235 3.2 9.7 0.00 0.00 0.00 80 1013.9
20260509154304 16 162 3.2 9.7 0.00 0.00 0.00 79 1013.9
20260509154241 16 207 3.2 9.7 0.00 0.00 0.00 79 1013.9
20260509154140 16 245 3.2 9.7 0.00 0.00 0.00 79 1013.9
20260509154040 16 229 3.2 9.7 0.00 0.00 0.00 79 1014.0
20260509153941 16 230 4.8 9.7 0.00 0.00 0.00 79 1014.0
20260509153839 16 225 4.8 9.7 0.00 0.00 0.00 79 1014.0
20260509153756 16 238 4.8 9.7 0.00 0.00 0.00 79 1014.0
20260509153738 16 223 4.8 8.0 0.00 0.00 0.00 79 1014.1
20260509153639 16 236 4.8 8.0 0.00 0.00 0.00 80 1014.1
20260509153537 16 148 4.8 8.0 0.00 0.00 0.00 80 1014.0
20260509153434 16 150 4.8 8.0 0.00 0.00 0.00 80 1014.1
20260509153332 16 212 4.8 8.0 0.00 0.00 0.00 80 1014.0
20260509153250 16 159 4.8 8.0 0.00 0.00 0.00 80 1014.0
20260509153233 16 177 4.8 8.0 0.00 0.00 0.00 80 1014.1
20260509153133 16 193 4.8 8.0 0.00 0.00 0.00 81 1014.1
20260509153031 16 233 4.8 8.0 0.00 0.00 0.00 80 1014.0
20260509152928 16 233 4.8 8.0 0.00 0.00 0.00 80 1014.0
20260509152824 16 205 4.8 8.0 0.00 0.00 0.00 79 1014.0
20260509152744 16 230 3.2 8.0 0.00 0.00 0.00 79 1014.0
20260509152725 16 236 3.2 8.0 0.00 0.00 0.00 79 1014.0
20260509152625 16 210 3.2 8.0 0.00 0.00 0.00 79 1014.0
20260509152525 16 194 3.2 8.0 0.00 0.00 0.00 79 1014.0
20260509152502 16 203 3.2 6.4 0.00 0.00 0.00 79 1014.0
20260509152422 16 211 3.2 8.0 0.00 0.00 0.00 79 1014.0
20260509152350 16 233 3.2 6.4 0.00 0.00 0.00 79 1014.0
20260509152218 16 191 3.2 6.4 0.00 0.00 0.00 79 1014.0
20260509152119 16 241 1.6 6.4 0.00 0.00 0.00 79 1014.0
20260509152019 16 219 1.6 6.4 0.00 0.00 0.00 80 1014.0
20260509151916 16 219 1.6 6.4 0.00 0.00 0.00 79 1014.0
20260509151814 16 226 1.6 6.4 0.00 0.00 0.00 80 1014.0
20260509151734 16 193 1.6 4.8 0.00 0.00 0.00 80 1014.0
20260509151714 16 234 1.6 4.8 0.00 0.00 0.00 80 1014.0
20260509151613 16 232 1.6 4.8 0.00 0.00 0.00 80 1014.0
20260509151512 16 224 1.6 4.8 0.00 0.00 0.00 80 1014.0
20260509151410 16 223 1.6 4.8 0.00 0.00 0.00 80 1014.0
20260509151307 16 134 1.6 4.8 0.00 0.00 0.00 81 1014.0
20260509151226 16 134 1.6 4.8 0.00 0.00 0.00 81 1014.0
20260509151204 16 158 1.6 4.8 0.00 0.00 0.00 81 1014.0
20260509151104 16 203 1.6 4.8 0.00 0.00 0.00 81 1014.0
20260509151005 15 139 1.6 4.8 0.00 0.00 0.00 81 1014.0
20260509150904 15 200 3.2 8.0 0.00 0.00 0.00 82 1014.0
20260509150804 15 169 3.2 8.0 0.00 0.00 0.00 82 1014.0
20260509150721 15 135 3.2 8.0 0.00 0.00 0.00 82 1013.9
20260509150702 15 136 3.2 8.0 0.00 0.00 0.00 82 1013.9
20260509150600 15 136 3.2 8.0 0.00 0.00 0.00 82 1013.9
20260509150501 15 219 3.2 8.0 0.00 0.00 0.00 82 1013.9
20260509150358 15 219 3.2 8.0 0.00 0.00 0.00 82 1013.9
20260509150257 15 176 3.2 8.0 0.00 0.00 0.00 82 1013.9
20260509150213 15 231 3.2 8.0 0.00 0.00 0.00 82 1013.9
20260509150157 15 231 3.2 8.0 0.00 0.00 0.00 82 1013.9
20260509150056 15 238 3.2 8.0 0.00 0.00 0.00 82 1013.9
20260509145954 15 151 3.2 8.0 0.00 0.00 0.00 82 1014.0
20260509145932 15 238 3.2 8.0 0.00 0.00 0.00 82 1014.1
20260509145852 15 250 3.2 6.4 0.00 0.00 0.00 82 1014.0
20260509145819 15 233 3.2 6.4 0.00 0.00 0.00 82 1014.0
20260509145647 15 232 3.2 8.0 0.00 0.00 0.00 82 1014.1
20260509145546 15 221 3.2 8.0 0.00 0.00 0.00 83 1014.0
20260509145446 15 221 3.2 8.0 0.00 0.00 0.00 82 1014.0
20260509145346 15 221 3.2 8.0 0.00 0.00 0.00 83 1014.0
20260509145242 15 187 3.2 8.0 0.00 0.00 0.00 83 1014.0
20260509145202 15 226 3.2 8.0 0.00 0.00 0.00 83 1014.0
20260509145140 15 146 3.2 8.0 0.00 0.00 0.00 83 1014.0
20260509145041 15 231 3.2 8.0 0.00 0.00 0.00 82 1014.0
20260509144941 15 240 3.2 8.0 0.00 0.00 0.00 83 1014.1
20260509144840 15 244 3.2 8.0 0.00 0.00 0.00 83 1014.0
20260509144736 15 200 3.2 8.0 0.00 0.00 0.00 82 1014.0
20260509144656 15 200 3.2 8.0 0.00 0.00 0.00 82 1014.0
20260509144635 15 200 3.2 8.0 0.00 0.00 0.00 83 1014.0
20260509144535 15 215 3.2 8.0 0.00 0.00 0.00 83 1014.1
20260509144435 15 232 3.2 8.0 0.00 0.00 0.00 83 1014.1
20260509144334 15 204 3.2 8.0 0.00 0.00 0.00 83 1014.1
20260509144228 15 198 3.2 8.0 0.00 0.00 0.00 83 1014.1
20260509144150 15 190 3.2 8.0 0.00 0.00 0.00 83 1014.1
20260509144129 15 193 3.2 8.0 0.00 0.00 0.00 83 1014.1
20260509144028 15 154 3.2 8.0 0.00 0.00 0.00 83 1014.1
20260509143928 15 150 1.6 8.0 0.00 0.00 0.00 83 1014.1
20260509143832 15 200 1.6 8.0 0.00 0.00 0.00 83 1014.1
20260509143728 14 228 1.6 8.0 0.00 0.00 0.00 84 1014.1
20260509143643 14 172 1.6 8.0 0.00 0.00 0.00 84 1014.1
20260509143627 14 165 1.6 8.0 0.00 0.00 0.00 84 1014.1
20260509143424 14 221 3.2 6.4 0.00 0.00 0.00 84 1014.0
20260509143321 14 221 3.2 8.0 0.00 0.00 0.00 84 1014.0
20260509143217 14 203 3.2 9.7 0.00 0.00 0.00 84 1014.0
20260509143137 14 233 3.2 9.7 0.00 0.00 0.00 84 1014.0
20260509143117 14 225 3.2 9.7 0.00 0.00 0.00 85 1014.0
20260509143016 14 154 3.2 9.7 0.00 0.00 0.00 85 1014.0
20260509142916 14 214 3.2 9.7 0.00 0.00 0.00 85 1014.0
20260509142816 14 139 3.2 9.7 0.00 0.00 0.00 85 1014.0
20260509142712 13 158 4.8 9.7 0.00 0.00 0.00 85 1013.9
20260509142633 13 167 4.8 9.7 0.00 0.00 0.00 85 1013.9
20260509142610 13 207 4.8 9.7 0.00 0.00 0.00 85 1013.9
20260509142511 13 211 4.8 9.7 0.00 0.00 0.00 85 1014.0
20260509142411 14 248 3.2 9.7 0.00 0.00 0.00 84 1014.0
20260509142310 14 192 3.2 9.7 0.00 0.00 0.00 84 1013.9
20260509142204 14 222 3.2 8.0 0.00 0.00 0.00 84 1013.9
20260509142127 14 229 3.2 8.0 0.00 0.00 0.00 84 1013.9
20260509142104 14 270 3.2 8.0 0.00 0.00 0.00 85 1013.9
20260509142004 13 146 3.2 6.4 0.00 0.00 0.00 85 1013.9
20260509141905 13 203 3.2 6.4 0.00 0.00 0.00 85 1013.9
20260509141804 13 139 3.2 6.4 0.00 0.00 0.00 85 1013.9
20260509141659 13 201 3.2 6.4 0.00 0.00 0.00 85 1014.0
20260509141621 13 184 3.2 6.4 0.00 0.00 0.00 85 1014.0
20260509141558 13 158 3.2 6.4 0.00 0.00 0.00 85 1014.0
20260509141459 13 222 3.2 6.4 0.00 0.00 0.00 85 1014.0
20260509141359 13 204 3.2 6.4 0.00 0.00 0.00 85 1014.0
20260509141258 13 211 3.2 6.4 0.00 0.00 0.00 85 1013.9
20260509141154 13 210 3.2 6.4 0.00 0.00 0.00 85 1013.9
20260509141114 13 200 3.2 6.4 0.00 0.00 0.00 85 1014.0
20260509141052 13 207 3.2 6.4 0.00 0.00 0.00 85 1014.0
20260509140952 13 200 1.6 6.4 0.00 0.00 0.00 85 1013.9
20260509140853 13 221 1.6 6.4 0.00 0.00 0.00 85 1013.9
20260509140752 13 219 1.6 6.4 0.00 0.00 0.00 85 1013.9
20260509140646 13 211 1.6 6.4 0.00 0.00 0.00 84 1013.9
20260509140608 13 224 1.6 4.8 0.00 0.00 0.00 85 1013.9
20260509140547 13 207 1.6 4.8 0.00 0.00 0.00 85 1013.9
20260509140447 13 186 1.6 4.8 0.00 0.00 0.00 85 1013.9
20260509140346 13 150 1.6 4.8 0.00 0.00 0.00 85 1013.9
20260509140246 13 208 1.6 4.8 0.00 0.00 0.00 85 1013.9
20260509140144 13 134 1.6 4.8 0.00 0.00 0.00 85 1013.9
20260509140107 13 131 1.6 4.8 0.00 0.00 0.00 85 1014.0
20260509140045 13 131 1.6 4.8 0.00 0.00 0.00 85 1013.9
20260509135943 13 231 1.6 4.8 0.00 0.00 0.00 85 1013.9
20260509135842 13 137 1.6 4.8 0.00 0.00 0.00 85 1013.9
20260509135819 13 136 1.6 4.8 0.00 0.00 0.00 86 1013.9
20260509135740 13 118 1.6 4.8 0.00 0.00 0.00 85 1013.9
20260509135706 13 135 1.6 4.8 0.00 0.00 0.00 85 1013.9
20260509135539 13 132 1.6 4.8 0.00 0.00 0.00 86 1013.9
20260509135438 13 139 1.6 3.2 0.00 0.00 0.00 86 1013.9
20260509135336 13 200 1.6 3.2 0.00 0.00 0.00 86 1013.9
20260509135234 13 211 1.6 3.2 0.00 0.00 0.00 87 1013.9
20260509135135 13 212 1.6 3.2 0.00 0.00 0.00 86 1013.8
20260509135051 13 212 1.6 3.2 0.00 0.00 0.00 86 1013.8
20260509135032 13 212 1.6 3.2 0.00 0.00 0.00 86 1013.9
20260509134930 13 212 1.6 3.2 0.00 0.00 0.00 86 1013.8
20260509134831 13 212 1.6 3.2 0.00 0.00 0.00 86 1013.8
20260509134728 13 232 1.6 3.2 0.00 0.00 0.00 86 1013.8
20260509134623 13 210 1.6 3.2 0.00 0.00 0.00 86 1013.8
20260509134544 13 163 1.6 3.2 0.00 0.00 0.00 86 1013.7
20260509134523 13 164 1.6 3.2 0.00 0.00 0.00 86 1013.7
20260509134422 13 170 1.6 3.2 0.00 0.00 0.00 86 1013.7
20260509134322 13 210 1.6 3.2 0.00 0.00 0.00 86 1013.8
20260509134222 13 229 0.0 3.2 0.00 0.00 0.00 86 1013.7
20260509134122 13 228 0.0 3.2 0.00 0.00 0.00 87 1013.8
20260509134021 13 165 1.6 3.2 0.00 0.00 0.00 87 1013.8
20260509133920 13 165 1.6 6.4 0.00 0.00 0.00 87 1013.8
20260509133818 13 150 1.6 6.4 0.00 0.00 0.00 87 1013.7
20260509133716 13 210 0.0 6.4 0.00 0.00 0.00 87 1013.7
20260509133531 13 235 0.0 6.4 0.00 0.00 0.00 87 1013.7
20260509133515 13 234 0.0 6.4 0.00 0.00 0.00 87 1013.7
20260509133415 13 235 1.6 6.4 0.00 0.00 0.00 87 1013.7
20260509133313 13 235 1.6 6.4 0.00 0.00 0.00 87 1013.7
20260509133257 12 234 1.6 6.4 0.00 0.00 0.00 87 1013.7
20260509133209 13 235 1.6 6.4 0.00 0.00 0.00 87 1013.7
20260509133151 13 235 1.6 6.4 0.00 0.00 0.00 87 1013.7
20260509133005 12 239 1.6 6.4 0.00 0.00 0.00 87 1013.7
20260509132905 12 239 1.6 6.4 0.00 0.00 0.00 87 1013.6
20260509132804 12 235 1.6 6.4 0.00 0.00 0.00 87 1013.6
20260509132740 12 235 1.6 6.4 0.00 0.00 0.00 87 1013.6
20260509132704 12 235 1.6 6.4 0.00 0.00 0.00 87 1013.6
20260509132631 12 235 1.6 6.4 0.00 0.00 0.00 87 1013.6
20260509132502 12 235 1.6 6.4 0.00 0.00 0.00 87 1013.6
20260509132401 12 230 1.6 6.4 0.00 0.00 0.00 87 1013.6
20260509132300 12 241 1.6 6.4 0.00 0.00 0.00 87 1013.6
20260509132248 12 229 3.2 8.0 0.00 0.00 0.00 87 1013.6
20260509132159 12 242 1.6 6.4 0.00 0.00 0.00 87 1013.6
20260509132137 12 240 1.6 8.0 0.00 0.00 0.00 87 1013.6
20260509131957 12 229 3.2 8.0 0.00 0.00 0.00 87 1013.6
20260509131854 12 140 3.2 8.0 0.00 0.00 0.00 87 1013.5
20260509131754 12 229 3.2 8.0 0.00 0.00 0.00 87 1013.6
20260509131736 12 210 3.2 9.7 0.00 0.00 0.00 87 1013.5
20260509131654 12 221 3.2 8.0 0.00 0.00 0.00 87 1013.5
20260509131622 12 223 3.2 9.7 0.00 0.00 0.00 87 1013.5
20260509131447 12 186 3.2 9.7 0.00 0.00 0.00 87 1013.5
20260509131347 12 237 3.2 9.7 0.00 0.00 0.00 87 1013.5
20260509131244 12 248 3.2 9.7 0.00 0.00 0.00 87 1013.5
20260509131142 12 256 3.2 9.7 0.00 0.00 0.00 87 1013.5
20260509131036 12 241 3.2 9.7 0.00 0.00 0.00 87 1013.5
20260509130958 12 233 3.2 9.7 0.00 0.00 0.00 87 1013.5
20260509130942 13 238 3.2 11.3 0.00 0.00 0.00 86 1013.5
20260509130937 13 219 3.2 9.7 0.00 0.00 0.00 87 1013.5
20260509130836 12 236 3.2 9.7 0.00 0.00 0.00 87 1013.5
20260509130823 12 228 3.2 9.7 0.00 0.00 0.00 87 1013.5
20260509130637 12 210 3.2 9.7 0.00 0.00 0.00 87 1013.5
20260509130601 13 243 3.2 11.3 0.00 0.00 0.00 86 1013.5
20260509130430 13 239 3.2 11.3 0.00 0.00 0.00 86 1013.5
20260509130331 13 225 3.2 11.3 0.00 0.00 0.00 86 1013.5
20260509130234 13 219 3.2 11.3 0.00 0.00 0.00 86 1013.5
20260509130130 13 218 4.8 11.3 0.00 0.00 0.00 86 1013.5
20260509130031 13 229 4.8 11.3 0.00 0.00 0.00 86 1013.5
20260509125928 13 277 4.8 11.3 0.00 0.00 0.00 86 1013.5
20260509125828 13 233 4.8 11.3 0.00 0.00 0.00 86 1013.4
20260509125726 13 238 4.8 11.3 0.00 0.00 0.00 86 1013.4
20260509125624 13 245 4.8 11.3 0.00 0.00 0.00 86 1013.4
20260509125521 13 226 4.8 11.3 0.00 0.00 0.00 86 1013.4
20260509125441 13 243 4.8 9.7 0.00 0.00 0.00 86 1013.4
20260509125420 13 229 4.8 9.7 0.00 0.00 0.00 86 1013.4
20260509125320 13 229 4.8 9.7 0.00 0.00 0.00 86 1013.3
20260509125220 13 230 4.8 9.7 0.00 0.00 0.00 86 1013.4
20260509125118 13 224 4.8 9.7 0.00 0.00 0.00 86 1013.3
20260509125013 13 235 4.8 9.7 0.00 0.00 0.00 86 1013.3
20260509124933 13 230 4.8 9.7 0.00 0.00 0.00 86 1013.4
20260509124912 13 236 4.8 9.7 0.00 0.00 0.00 86 1013.4
20260509124813 13 226 4.8 9.7 0.00 0.00 0.00 86 1013.3
20260509124713 13 235 4.8 9.7 0.00 0.00 0.00 86 1013.3
20260509124612 13 226 4.8 11.3 0.00 0.00 0.00 86 1013.3
20260509124506 13 246 4.8 11.3 0.00 0.00 0.00 86 1013.3
20260509124428 13 198 4.8 11.3 0.00 0.00 0.00 86 1013.4
20260509124407 13 229 4.8 11.3 0.00 0.00 0.00 86 1013.4
20260509124306 13 225 4.8 11.3 0.00 0.00 0.00 85 1013.4
20260509124206 13 229 4.8 11.3 0.00 0.00 0.00 86 1013.3
20260509124106 13 235 4.8 11.3 0.00 0.00 0.00 85 1013.4
20260509124003 13 250 3.2 11.3 0.00 0.00 0.00 86 1013.4
20260509123922 13 231 3.2 11.3 0.00 0.00 0.00 86 1013.3
20260509123901 13 249 3.2 11.3 0.00 0.00 0.00 86 1013.3
20260509123801 13 236 3.2 11.3 0.00 0.00 0.00 86 1013.4
20260509123701 13 229 3.2 9.7 0.00 0.00 0.00 86 1013.4
20260509123600 13 233 3.2 9.7 0.00 0.00 0.00 86 1013.3
20260509123454 13 241 3.2 9.7 0.00 0.00 0.00 85 1013.4
20260509123416 13 218 3.2 8.0 0.00 0.00 0.00 85 1013.3
20260509123354 13 240 3.2 8.0 0.00 0.00 0.00 85 1013.3
20260509123255 13 240 3.2 8.0 0.00 0.00 0.00 85 1013.4
20260509123154 13 223 3.2 8.0 0.00 0.00 0.00 85 1013.3
20260509123054 13 229 3.2 8.0 0.00 0.00 0.00 85 1013.3
20260509122953 13 231 3.2 8.0 0.00 0.00 0.00 85 1013.4
20260509122909 13 238 3.2 8.0 0.00 0.00 0.00 85 1013.4
20260509122852 13 242 3.2 8.0 0.00 0.00 0.00 85 1013.4
20260509122751 13 239 3.2 8.0 0.00 0.00 0.00 86 1013.4
20260509122650 13 214 3.2 8.0 0.00 0.00 0.00 86 1013.4
20260509122622 13 224 3.2 9.7 0.00 0.00 0.00 86 1013.4
20260509122548 13 233 3.2 9.7 0.00 0.00 0.00 86 1013.4
20260509122515 13 228 3.2 9.7 0.00 0.00 0.00 86 1013.4
20260509122342 13 212 3.2 9.7 0.00 0.00 0.00 86 1013.4
20260509122242 13 231 3.2 9.7 0.00 0.00 0.00 86 1013.4
20260509122142 13 233 3.2 9.7 0.00 0.00 0.00 86 1013.4
20260509122042 13 239 3.2 9.7 0.00 0.00 0.00 86 1013.4
20260509121936 13 236 3.2 9.7 0.00 0.00 0.00 86 1013.4
20260509121857 13 218 3.2 9.7 0.00 0.00 0.00 86 1013.4
20260509121836 13 218 3.2 9.7 0.00 0.00 0.00 86 1013.3
20260509121736 13 225 3.2 9.7 0.00 0.00 0.00 86 1013.4
20260509121636 13 257 1.6 9.7 0.00 0.00 0.00 87 1013.4
20260509121536 13 238 1.6 8.0 0.00 0.00 0.00 87 1013.3
20260509121431 13 245 1.6 8.0 0.00 0.00 0.00 87 1013.4
20260509121352 13 229 1.6 8.0 0.00 0.00 0.00 87 1013.4
20260509121330 13 184 1.6 8.0 0.00 0.00 0.00 87 1013.3
20260509121232 13 232 1.6 8.0 0.00 0.00 0.00 87 1013.4
20260509121130 13 271 1.6 8.0 0.00 0.00 0.00 87 1013.4
20260509121031 13 155 1.6 4.8 0.00 0.00 0.00 87 1013.3
20260509120929 13 219 1.6 4.8 0.00 0.00 0.00 87 1013.4
20260509120847 13 218 1.6 4.8 0.00 0.00 0.00 87 1013.4
20260509120830 13 228 0.0 4.8 0.00 0.00 0.00 87 1013.4
20260509120729 13 222 0.0 4.8 0.00 0.00 0.00 87 1013.4
20260509120626 13 214 0.0 3.2 0.00 0.00 0.00 87 1013.4
20260509120525 13 200 0.0 3.2 0.00 0.00 0.00 87 1013.4
20260509120421 13 208 0.0 3.2 0.00 0.00 0.00 87 1013.4
20260509120318 13 212 0.0 3.2 0.00 0.00 0.00 87 1013.4
20260509120219 13 212 0.0 3.2 0.00 0.00 0.00 87 1013.4
20260509120119 13 212 0.0 3.2 0.00 0.00 0.00 87 1013.3
20260509120018 13 212 0.0 3.2 0.00 0.00 0.00 87 1013.4
20260509115918 13 212 0.0 3.2 0.00 0.00 0.00 87 1013.3
20260509115816 13 212 0.0 3.2 0.00 0.00 0.00 87 1013.3
20260509115717 13 212 0.0 3.2 0.00 0.00 0.00 87 1013.4
20260509115615 13 212 0.0 3.2 0.00 0.00 0.00 87 1013.4
20260509115512 13 212 0.0 3.2 0.00 0.00 0.00 87 1013.4
20260509115408 13 212 0.0 3.2 0.00 0.00 0.00 87 1013.4
20260509115328 13 212 0.0 3.2 0.00 0.00 0.00 87 1013.4
20260509115308 13 211 0.0 3.2 0.00 0.00 0.00 87 1013.4
20260509115208 13 211 0.0 3.2 0.00 0.00 0.00 87 1013.4
20260509115109 13 233 1.6 3.2 0.00 0.00 0.00 87 1013.4
20260509115006 13 233 1.6 3.2 0.00 0.00 0.00 87 1013.4
20260509114902 13 233 1.6 3.2 0.00 0.00 0.00 87 1013.4
20260509114827 13 233 1.6 3.2 0.00 0.00 0.00 87 1013.3
20260509114800 13 233 1.6 3.2 0.00 0.00 0.00 87 1013.3
20260509114701 13 233 1.6 3.2 0.00 0.00 0.00 87 1013.4
20260509114601 13 233 1.6 3.2 0.00 0.00 0.00 87 1013.4
20260509114545 13 238 1.6 3.2 0.00 0.00 0.00 87 1013.3
20260509114500 13 233 1.6 3.2 0.00 0.00 0.00 87 1013.4
20260509114428 13 233 1.6 3.2 0.00 0.00 0.00 87 1013.4
20260509114259 13 236 1.6 3.2 0.00 0.00 0.00 87 1013.3
20260509114158 13 235 0.0 3.2 0.00 0.00 0.00 87 1013.4
20260509114056 13 235 0.0 3.2 0.00 0.00 0.00 87 1013.3
20260509113954 13 235 0.0 3.2 0.00 0.00 0.00 87 1013.4
20260509113853 13 236 0.0 3.2 0.00 0.00 0.00 87 1013.4
20260509113809 13 236 0.0 3.2 0.00 0.00 0.00 87 1013.4
20260509113752 13 236 0.0 3.2 0.00 0.00 0.00 87 1013.4
20260509113652 13 236 0.0 3.2 0.00 0.00 0.00 87 1013.4
20260509113550 13 238 0.0 3.2 0.00 0.00 0.00 87 1013.4
20260509113448 13 238 0.0 3.2 0.00 0.00 0.00 87 1013.4
20260509113344 13 238 0.0 3.2 0.00 0.00 0.00 87 1013.4
20260509113304 13 238 0.0 3.2 0.00 0.00 0.00 87 1013.4
20260509113242 13 238 0.0 3.2 0.00 0.00 0.00 87 1013.4
20260509113143 13 238 0.0 3.2 0.00 0.00 0.00 88 1013.4
20260509113042 13 238 0.0 3.2 0.00 0.00 0.00 88 1013.4
20260509113022 13 226 0.0 3.2 0.00 0.00 0.00 88 1013.4
20260509112942 13 226 0.0 3.2 0.00 0.00 0.00 88 1013.4
20260509112912 13 226 0.0 3.2 0.00 0.00 0.00 88 1013.4
20260509112737 13 226 0.0 3.2 0.00 0.00 0.00 88 1013.4
20260509112636 13 226 0.0 3.2 0.00 0.00 0.00 88 1013.4
20260509112537 13 226 0.0 3.2 0.00 0.00 0.00 88 1013.4
20260509112436 13 226 0.0 3.2 0.00 0.00 0.00 88 1013.4
20260509112336 12 226 0.0 3.2 0.00 0.00 0.00 88 1013.4
20260509112253 12 226 0.0 3.2 0.00 0.00 0.00 88 1013.4
20260509112237 12 226 0.0 3.2 0.00 0.00 0.00 88 1013.5
20260509112132 12 226 0.0 3.2 0.00 0.00 0.00 88 1013.4
20260509112032 12 226 0.0 3.2 0.00 0.00 0.00 88 1013.4
20260509111931 12 232 0.0 3.2 0.00 0.00 0.00 88 1013.4
20260509111827 12 232 0.0 3.2 0.00 0.00 0.00 88 1013.4
20260509111724 12 232 0.0 3.2 0.00 0.00 0.00 88 1013.4
20260509111624 12 232 0.0 3.2 0.00 0.00 0.00 89 1013.4
20260509111525 12 232 0.0 3.2 0.00 0.00 0.00 89 1013.4
20260509111424 12 232 0.0 3.2 0.00 0.00 0.00 89 1013.4
20260509111321 12 232 0.0 3.2 0.00 0.00 0.00 89 1013.4
20260509111232 12 224 0.0 1.6 0.00 0.00 0.00 88 1013.4
20260509111218 12 232 0.0 3.2 0.00 0.00 0.00 89 1013.4
20260509111124 12 233 0.0 3.2 0.00 0.00 0.00 89 1013.4
20260509111115 12 233 0.0 1.6 0.00 0.00 0.00 88 1013.4
20260509110918 12 223 0.0 1.6 0.00 0.00 0.00 88 1013.4
20260509110848 12 224 0.0 1.6 0.00 0.00 0.00 88 1013.4
20260509110716 12 224 0.0 1.6 0.00 0.00 0.00 88 1013.4
20260509110617 12 224 0.0 1.6 0.00 0.00 0.00 88 1013.4
20260509110514 12 224 0.0 1.6 0.00 0.00 0.00 88 1013.4
20260509110412 12 224 0.0 1.6 0.00 0.00 0.00 88 1013.4
20260509110306 13 224 0.0 1.6 0.00 0.00 0.00 88 1013.4
20260509110232 13 223 0.0 1.6 0.00 0.00 0.00 88 1013.4
20260509110207 13 224 0.0 1.6 0.00 0.00 0.00 88 1013.4
20260509110106 13 224 0.0 1.6 0.00 0.00 0.00 88 1013.4
20260509110006 13 224 0.0 1.6 0.00 0.00 0.00 88 1013.3
20260509105906 13 224 0.0 1.6 0.00 0.00 0.00 88 1013.4
20260509105804 13 224 0.0 1.6 0.00 0.00 0.00 88 1013.3
20260509105722 13 224 0.0 1.6 0.00 0.00 0.00 88 1013.3
20260509105704 13 224 0.0 1.6 0.00 0.00 0.00 88 1013.3
20260509105603 13 223 0.0 1.6 0.00 0.00 0.00 88 1013.3
20260509105503 13 224 0.0 1.6 0.00 0.00 0.00 88 1013.3
20260509105400 13 224 0.0 1.6 0.00 0.00 0.00 88 1013.3
20260509105255 13 224 0.0 1.6 0.00 0.00 0.00 88 1013.3
20260509105215 13 224 0.0 1.6 0.00 0.00 0.00 88 1013.3
20260509105155 13 224 0.0 1.6 0.00 0.00 0.00 88 1013.3
20260509105055 13 224 0.0 1.6 0.00 0.00 0.00 88 1013.3
20260509104954 13 165 0.0 1.6 0.00 0.00 0.00 88 1013.3
20260509104854 13 165 0.0 1.6 0.00 0.00 0.00 88 1013.3
20260509104750 13 165 0.0 1.6 0.00 0.00 0.00 88 1013.3
20260509104711 13 165 0.0 1.6 0.00 0.00 0.00 88 1013.3
20260509104648 13 165 0.0 1.6 0.00 0.00 0.00 88 1013.3
20260509104549 13 165 0.0 1.6 0.00 0.00 0.00 88 1013.3
20260509104448 13 165 0.0 1.6 0.00 0.00 0.00 88 1013.3
20260509104348 13 165 0.0 1.6 0.00 0.00 0.00 88 1013.3
20260509104249 13 207 0.0 1.6 0.00 0.00 0.00 88 1013.3
20260509104203 13 207 0.0 1.6 0.00 0.00 0.00 88 1013.3
20260509104147 13 207 0.0 1.6 0.00 0.00 0.00 88 1013.3
20260509104046 13 207 0.0 1.6 0.00 0.00 0.00 88 1013.3
20260509103944 13 207 0.0 1.6 0.00 0.00 0.00 88 1013.3
20260509103842 13 207 0.0 1.6 0.00 0.00 0.00 88 1013.3
20260509103742 13 207 0.0 1.6 0.00 0.00 0.00 88 1013.3
20260509103640 13 207 0.0 1.6 0.00 0.00 0.00 88 1013.3
20260509103538 13 207 0.0 1.6 0.00 0.00 0.00 88 1013.3
20260509103439 13 207 0.0 1.6 0.00 0.00 0.00 88 1013.3
20260509103336 13 207 0.0 1.6 0.00 0.00 0.00 88 1013.4
20260509103233 13 207 0.0 1.6 0.00 0.00 0.00 88 1013.4
20260509103130 13 207 0.0 1.6 0.00 0.00 0.00 88 1013.4
20260509103031 13 207 0.0 1.6 0.00 0.00 0.00 88 1013.4
20260509102931 13 207 0.0 1.6 0.00 0.00 0.00 88 1013.4
20260509102830 13 207 0.0 1.6 0.00 0.00 0.00 88 1013.4
20260509102730 13 207 0.0 1.6 0.00 0.00 0.00 88 1013.4
20260509102628 13 207 0.0 1.6 0.00 0.00 0.00 88 1013.4
20260509102528 13 207 0.0 1.6 0.00 0.00 0.00 88 1013.3
20260509102427 13 207 0.0 1.6 0.00 0.00 0.00 87 1013.4
20260509102324 13 207 0.0 1.6 0.00 0.00 0.00 87 1013.4
20260509102222 13 207 0.0 1.6 0.00 0.00 0.00 87 1013.3
20260509102140 13 207 0.0 3.2 0.00 0.00 0.00 87 1013.4
20260509102023 13 207 0.0 3.2 0.00 0.00 0.00 87 1013.4
20260509101920 13 207 0.0 3.2 0.00 0.00 0.00 87 1013.4
20260509101823 13 207 0.0 3.2 0.00 0.00 0.00 87 1013.4
20260509101714 13 207 0.0 3.2 0.00 0.00 0.00 87 1013.4
20260509101613 13 207 0.0 3.2 0.00 0.00 0.00 87 1013.4
20260509101513 13 207 0.0 3.2 0.00 0.00 0.00 87 1013.4
20260509101413 13 207 0.0 3.2 0.00 0.00 0.00 87 1013.4
20260509101312 13 207 0.0 3.2 0.00 0.00 0.00 87 1013.4
20260509101208 13 207 0.0 3.2 0.00 0.00 0.00 87 1013.4
20260509101107 13 207 0.0 1.6 0.00 0.00 0.00 87 1013.4
20260509101007 13 207 0.0 1.6 0.00 0.00 0.00 87 1013.4
20260509100906 13 207 0.0 1.6 0.00 0.00 0.00 87 1013.4
20260509100806 13 207 0.0 1.6 0.00 0.00 0.00 87 1013.4
20260509100706 13 207 0.0 1.6 0.00 0.00 0.00 87 1013.4
20260509100621 13 207 0.0 1.6 0.00 0.00 0.00 87 1013.4
20260509100606 13 207 0.0 1.6 0.00 0.00 0.00 87 1013.4
20260509100504 13 207 0.0 3.2 0.00 0.00 0.00 87 1013.4
20260509100402 13 207 0.0 3.2 0.00 0.00 0.00 87 1013.4
20260509100336 13 207 1.6 3.2 0.00 0.00 0.00 87 1013.4
20260509100300 13 207 0.0 3.2 0.00 0.00 0.00 87 1013.4
20260509100228 13 207 1.6 3.2 0.00 0.00 0.00 87 1013.4
20260509100055 13 207 1.6 3.2 0.00 0.00 0.00 87 1013.4
20260509095955 13 207 1.6 3.2 0.00 0.00 0.00 86 1013.4
20260509095854 13 207 1.6 3.2 0.00 0.00 0.00 86 1013.4
20260509095832 13 207 1.6 3.2 0.00 0.00 0.00 86 1013.4
20260509095754 13 207 1.6 3.2 0.00 0.00 0.00 86 1013.4
20260509095720 13 207 1.6 3.2 0.00 0.00 0.00 86 1013.4
20260509095552 13 200 1.6 3.2 0.00 0.00 0.00 86 1013.4
20260509095453 13 200 1.6 3.2 0.00 0.00 0.00 86 1013.4
20260509095351 13 225 1.6 3.2 0.00 0.00 0.00 87 1013.4
20260509095248 13 225 0.0 3.2 0.00 0.00 0.00 87 1013.5
20260509095146 13 217 0.0 3.2 0.00 0.00 0.00 87 1013.5
20260509095104 13 217 0.0 3.2 0.00 0.00 0.00 87 1013.4
20260509095047 13 216 0.0 3.2 0.00 0.00 0.00 87 1013.4
20260509094946 13 217 1.6 3.2 0.00 0.00 0.00 86 1013.5
20260509094844 13 217 0.0 3.2 0.00 0.00 0.00 86 1013.5
20260509094743 13 217 0.0 3.2 0.00 0.00 0.00 86 1013.5
20260509094638 13 176 1.6 3.2 0.00 0.00 0.00 86 1013.5
20260509094536 13 176 1.6 3.2 0.00 0.00 0.00 86 1013.5
20260509094437 13 224 1.6 3.2 0.00 0.00 0.00 86 1013.5
20260509094336 13 224 1.6 3.2 0.00 0.00 0.00 86 1013.5
20260509094236 13 207 1.6 3.2 0.00 0.00 0.00 87 1013.5
20260509094137 13 207 1.6 3.2 0.00 0.00 0.00 86 1013.5
20260509094034 13 207 1.6 3.2 0.00 0.00 0.00 86 1013.5
20260509093934 13 207 1.6 3.2 0.00 0.00 0.00 86 1013.5
20260509093833 13 207 1.6 3.2 0.00 0.00 0.00 87 1013.5
20260509093730 13 207 1.6 3.2 0.00 0.00 0.00 87 1013.5
20260509093628 13 221 0.0 3.2 0.00 0.00 0.00 87 1013.5
20260509093546 13 219 0.0 3.2 0.00 0.00 0.00 87 1013.5
20260509093529 13 221 0.0 3.2 0.00 0.00 0.00 87 1013.5
20260509093429 13 219 0.0 3.2 0.00 0.00 0.00 87 1013.5
20260509093327 13 221 0.0 3.2 0.00 0.00 0.00 87 1013.5
20260509093303 13 136 0.0 1.6 0.00 0.00 0.00 87 1013.6
20260509093224 13 136 0.0 1.6 0.00 0.00 0.00 87 1013.5
20260509093150 13 136 0.0 1.6 0.00 0.00 0.00 87 1013.6
20260509093019 13 136 0.0 1.6 0.00 0.00 0.00 87 1013.6
20260509092919 13 136 0.0 1.6 0.00 0.00 0.00 87 1013.6
20260509092818 13 135 0.0 1.6 0.00 0.00 0.00 87 1013.6
20260509092719 13 136 0.0 1.6 0.00 0.00 0.00 87 1013.5
20260509092617 13 136 0.0 1.6 0.00 0.00 0.00 86 1013.5
20260509092517 13 136 0.0 1.6 0.00 0.00 0.00 86 1013.5
20260509092416 13 136 0.0 1.6 0.00 0.00 0.00 86 1013.5
20260509092315 13 136 0.0 1.6 0.00 0.00 0.00 86 1013.5
20260509092252 13 136 0.0 1.6 0.00 0.00 0.00 86 1013.5
20260509092213 13 136 0.0 1.6 0.00 0.00 0.00 86 1013.5
20260509092138 13 136 0.0 1.6 0.00 0.00 0.00 86 1013.5
20260509092006 13 135 0.0 1.6 0.00 0.00 0.00 86 1013.5
20260509091906 13 136 0.0 1.6 0.00 0.00 0.00 86 1013.5
20260509091807 13 135 0.0 1.6 0.00 0.00 0.00 86 1013.5
20260509091706 13 136 0.0 1.6 0.00 0.00 0.00 86 1013.5
20260509091601 13 136 0.0 1.6 0.00 0.00 0.00 86 1013.5
20260509091522 13 136 0.0 1.6 0.00 0.00 0.00 86 1013.5
20260509091500 13 136 0.0 1.6 0.00 0.00 0.00 86 1013.5
20260509091401 13 136 0.0 1.6 0.00 0.00 0.00 86 1013.5
20260509091301 13 136 0.0 1.6 0.00 0.00 0.00 86 1013.5
20260509091200 13 136 0.0 1.6 0.00 0.00 0.00 86 1013.5
20260509091056 13 135 0.0 1.6 0.00 0.00 0.00 86 1013.5
20260509091016 13 136 0.0 1.6 0.00 0.00 0.00 86 1013.5
20260509090955 13 136 0.0 1.6 0.00 0.00 0.00 86 1013.5
20260509090854 13 135 0.0 1.6 0.00 0.00 0.00 86 1013.5
20260509090754 13 135 0.0 1.6 0.00 0.00 0.00 85 1013.6
20260509090740 13 136 0.0 1.6 0.00 0.00 0.00 86 1013.5
20260509090654 13 136 0.0 1.6 0.00 0.00 0.00 86 1013.6
20260509090620 13 136 0.0 1.6 0.00 0.00 0.00 86 1013.5
20260509090449 13 136 0.0 1.6 0.00 0.00 0.00 86 1013.5
20260509090348 13 135 0.0 1.6 0.00 0.00 0.00 85 1013.5
20260509090248 13 135 0.0 1.6 0.00 0.00 0.00 85 1013.5
20260509090148 13 135 0.0 1.6 0.00 0.00 0.00 85 1013.5
20260509090045 13 136 0.0 1.6 0.00 0.00 0.00 85 1013.5
20260509090004 13 135 0.0 1.6 0.00 0.00 0.00 85 1013.5
20260509085942 13 136 0.0 1.6 0.00 0.00 0.00 85 1013.5
20260509085843 13 135 0.0 0.0 0.00 0.00 0.00 85 1013.5
20260509085742 13 136 0.0 0.0 0.00 0.00 0.00 85 1013.5
20260509085643 13 135 0.0 0.0 0.00 0.00 0.00 85 1013.5
20260509085536 13 136 0.0 0.0 0.00 0.00 0.00 85 1013.5
20260509085458 13 136 0.0 0.0 0.00 0.00 0.00 85 1013.5
20260509085437 13 136 0.0 1.6 0.00 0.00 0.00 85 1013.5
20260509085336 13 136 0.0 1.6 0.00 0.00 0.00 85 1013.6
20260509085237 13 136 0.0 1.6 0.00 0.00 0.00 85 1013.6
20260509085136 13 136 0.0 1.6 0.00 0.00 0.00 85 1013.6
20260509085036 13 136 0.0 1.6 0.00 0.00 0.00 85 1013.6
20260509084934 13 136 0.0 1.6 0.00 0.00 0.00 85 1013.6
20260509084835 13 136 0.0 1.6 0.00 0.00 0.00 85 1013.6
20260509084733 13 136 0.0 3.2 0.00 0.00 0.00 85 1013.6
20260509084707 14 136 0.0 3.2 0.00 0.00 0.00 85 1013.6
20260509084630 13 136 0.0 3.2 0.00 0.00 0.00 85 1013.6
20260509084555 13 135 0.0 3.2 0.00 0.00 0.00 85 1013.6
20260509084425 14 136 0.0 3.2 0.00 0.00 0.00 84 1013.6
20260509084325 14 135 1.6 3.2 0.00 0.00 0.00 84 1013.6
20260509084224 14 136 1.6 3.2 0.00 0.00 0.00 84 1013.6
20260509084124 14 136 1.6 3.2 0.00 0.00 0.00 84 1013.6
20260509084024 14 136 1.6 3.2 0.00 0.00 0.00 84 1013.6
20260509083940 14 136 1.6 3.2 0.00 0.00 0.00 84 1013.6
20260509083923 14 135 1.6 3.2 0.00 0.00 0.00 84 1013.6
20260509083821 14 135 1.6 3.2 0.00 0.00 0.00 84 1013.7
20260509083721 14 137 1.6 3.2 0.00 0.00 0.00 84 1013.6
20260509083702 14 136 1.6 3.2 0.00 0.00 0.00 84 1013.6
20260509083619 14 136 1.6 3.2 0.00 0.00 0.00 84 1013.7
20260509083547 14 137 1.6 3.2 0.00 0.00 0.00 84 1013.6
20260509083416 14 137 1.6 3.2 0.00 0.00 0.00 84 1013.6
20260509083317 14 136 1.6 3.2 0.00 0.00 0.00 84 1013.6
20260509083215 14 137 1.6 3.2 0.00 0.00 0.00 84 1013.6
20260509083112 14 136 1.6 3.2 0.00 0.00 0.00 84 1013.6
20260509083006 14 143 0.0 3.2 0.00 0.00 0.00 84 1013.6
20260509082929 14 137 0.0 1.6 0.00 0.00 0.00 84 1013.6
20260509082907 14 136 0.0 1.6 0.00 0.00 0.00 84 1013.6
20260509082810 14 137 0.0 1.6 0.00 0.00 0.00 84 1013.6
20260509082707 14 137 1.6 1.6 0.00 0.00 0.00 84 1013.7
20260509082606 14 137 1.6 1.6 0.00 0.00 0.00 84 1013.7
20260509082502 14 137 0.0 1.6 0.00 0.00 0.00 84 1013.6
20260509082421 14 136 0.0 1.6 0.00 0.00 0.00 84 1013.6
20260509082402 14 137 0.0 1.6 0.00 0.00 0.00 84 1013.6
20260509082306 14 136 0.0 1.6 0.00 0.00 0.00 84 1013.7
20260509082203 14 136 0.0 3.2 0.00 0.00 0.00 84 1013.7
20260509082102 14 137 0.0 4.8 0.00 0.00 0.00 84 1013.7
20260509081959 14 137 0.0 4.8 0.00 0.00 0.00 84 1013.7
20260509081916 14 137 0.0 4.8 0.00 0.00 0.00 84 1013.7
20260509081859 14 136 0.0 4.8 0.00 0.00 0.00 84 1013.7
20260509081758 14 137 1.6 4.8 0.00 0.00 0.00 84 1013.7
20260509081656 14 136 1.6 4.8 0.00 0.00 0.00 84 1013.7
20260509081554 14 138 1.6 4.8 0.00 0.00 0.00 84 1013.8
20260509081449 14 138 1.6 4.8 0.00 0.00 0.00 84 1013.8
20260509081410 14 138 1.6 4.8 0.00 0.00 0.00 84 1013.7
20260509081348 14 138 1.6 4.8 0.00 0.00 0.00 84 1013.7
20260509081248 14 138 1.6 4.8 0.00 0.00 0.00 84 1013.8
20260509081149 14 120 1.6 4.8 0.00 0.00 0.00 84 1013.8
20260509081048 14 119 1.6 4.8 0.00 0.00 0.00 84 1013.8
20260509080944 14 119 1.6 4.8 0.00 0.00 0.00 84 1013.8
20260509080904 14 119 1.6 4.8 0.00 0.00 0.00 84 1013.8
20260509080843 14 119 1.6 4.8 0.00 0.00 0.00 84 1013.8
20260509080742 14 140 1.6 3.2 0.00 0.00 0.00 84 1013.8
20260509080642 14 139 0.0 3.2 0.00 0.00 0.00 84 1013.8
20260509080541 14 133 0.0 3.2 0.00 0.00 0.00 84 1013.8
20260509080439 14 143 0.0 3.2 0.00 0.00 0.00 84 1013.8
20260509080358 14 136 0.0 3.2 0.00 0.00 0.00 84 1013.8
20260509080338 14 137 0.0 3.2 0.00 0.00 0.00 84 1013.8
20260509080239 14 137 0.0 3.2 0.00 0.00 0.00 84 1013.8
20260509080138 14 137 0.0 3.2 0.00 0.00 0.00 84 1013.8
20260509080038 14 136 0.0 3.2 0.00 0.00 0.00 85 1013.8
20260509075932 14 138 0.0 0.0 0.00 0.00 0.00 85 1013.8
20260509075852 14 139 0.0 0.0 0.00 0.00 0.00 85 1013.8
20260509075830 15 138 0.0 0.0 0.00 0.00 0.00 85 1013.9
20260509075731 15 138 0.0 1.6 0.00 0.00 0.00 84 1013.8
20260509075630 15 138 0.0 1.6 0.00 0.00 0.00 84 1013.9
20260509075532 15 139 0.0 3.2 0.00 0.00 0.00 84 1013.9
20260509075424 15 138 0.0 3.2 0.00 0.00 0.00 84 1013.9
20260509075347 15 139 0.0 3.2 0.00 0.00 0.00 84 1013.9
20260509075325 15 138 0.0 3.2 0.00 0.00 0.00 84 1013.9
20260509075224 15 139 0.0 3.2 0.00 0.00 0.00 84 1013.9
20260509075125 15 139 0.0 3.2 0.00 0.00 0.00 84 1013.9
20260509075024 15 138 0.0 3.2 0.00 0.00 0.00 84 1013.9
20260509074919 15 138 0.0 3.2 0.00 0.00 0.00 84 1013.9
20260509074819 15 139 0.0 3.2 0.00 0.00 0.00 84 1013.9
20260509074718 15 139 0.0 3.2 0.00 0.00 0.00 84 1013.9
20260509074618 15 138 0.0 3.2 0.00 0.00 0.00 84 1013.9
20260509074518 15 138 0.0 1.6 0.00 0.00 0.00 84 1013.8
20260509074414 15 139 0.0 1.6 0.00 0.00 0.00 84 1013.8
20260509074312 15 139 0.0 1.6 0.00 0.00 0.00 84 1013.8
20260509074212 15 138 0.0 1.6 0.00 0.00 0.00 84 1013.8
20260509074112 15 138 0.0 1.6 0.00 0.00 0.00 84 1013.7
20260509074013 15 139 0.0 1.6 0.00 0.00 0.00 84 1013.8
20260509073906 15 139 0.0 1.6 0.00 0.00 0.00 84 1013.8
20260509073829 15 139 0.0 1.6 0.00 0.00 0.00 83 1013.8
20260509073810 15 138 0.0 1.6 0.00 0.00 0.00 83 1013.8
20260509073706 15 138 0.0 1.6 0.00 0.00 0.00 83 1013.8
20260509073606 15 139 0.0 1.6 0.00 0.00 0.00 83 1013.8
20260509073506 15 138 0.0 0.0 0.00 0.00 0.00 83 1013.8
20260509073406 15 138 0.0 0.0 0.00 0.00 0.00 83 1013.8
20260509073330 15 138 0.0 0.0 0.00 0.00 0.00 83 1013.8
20260509073305 15 138 0.0 0.0 0.00 0.00 0.00 83 1013.8
20260509073205 15 138 0.0 0.0 0.00 0.00 0.00 83 1013.9
20260509073103 15 138 0.0 1.6 0.00 0.00 0.00 83 1013.8
20260509073000 15 139 0.0 1.6 0.00 0.00 0.00 83 1013.8
20260509072856 15 138 0.0 1.6 0.00 0.00 0.00 82 1013.8
20260509072825 15 138 0.0 1.6 0.00 0.00 0.00 82 1013.8
20260509072754 15 138 0.0 1.6 0.00 0.00 0.00 82 1013.8
20260509072655 15 138 0.0 1.6 0.00 0.00 0.00 83 1013.8
20260509072554 15 138 0.0 1.6 0.00 0.00 0.00 83 1013.8
20260509072543 15 139 0.0 1.6 0.00 0.00 0.00 82 1013.7
20260509072454 15 138 0.0 1.6 0.00 0.00 0.00 82 1013.8
20260509072436 15 138 0.0 1.6 0.00 0.00 0.00 82 1013.7
20260509072252 15 139 0.0 1.6 0.00 0.00 0.00 82 1013.7
20260509072150 15 138 0.0 1.6 0.00 0.00 0.00 82 1013.7
20260509072050 15 138 0.0 1.6 0.00 0.00 0.00 82 1013.7
20260509071947 15 138 0.0 1.6 0.00 0.00 0.00 82 1013.7
20260509071824 15 138 0.0 1.6 0.00 0.00 0.00 82 1013.7
20260509071742 15 138 0.0 1.6 0.00 0.00 0.00 82 1013.7
20260509071642 15 139 0.0 1.6 0.00 0.00 0.00 82 1013.6
20260509071542 15 138 0.0 1.6 0.00 0.00 0.00 83 1013.7
20260509071442 15 138 0.0 1.6 0.00 0.00 0.00 83 1013.7
20260509071324 15 138 0.0 1.6 0.00 0.00 0.00 83 1013.7
20260509071237 15 139 0.0 1.6 0.00 0.00 0.00 82 1013.7
20260509071137 15 138 0.0 1.6 0.00 0.00 0.00 82 1013.7
20260509071037 15 139 0.0 1.6 0.00 0.00 0.00 82 1013.6
20260509070936 15 138 0.0 1.6 0.00 0.00 0.00 82 1013.7
20260509070824 15 139 0.0 1.6 0.00 0.00 0.00 82 1013.6
20260509070805 15 124 0.0 0.0 0.00 0.00 0.00 82 1013.6
20260509070734 15 139 0.0 1.6 0.00 0.00 0.00 82 1013.6
20260509070656 15 124 0.0 1.6 0.00 0.00 0.00 82 1013.6
20260509070532 15 124 0.0 1.6 0.00 0.00 0.00 82 1013.6
20260509070443 15 124 0.0 1.6 0.00 0.00 0.00 82 1013.6
20260509070435 15 124 0.0 0.0 0.00 0.00 0.00 82 1013.6
20260509070228 15 124 0.0 0.0 0.00 0.00 0.00 82 1013.6
20260509070128 15 124 0.0 1.6 0.00 0.00 0.00 82 1013.6
20260509070027 15 124 0.0 1.6 0.00 0.00 0.00 82 1013.7
20260509065924 15 124 0.0 1.6 0.00 0.00 0.00 82 1013.7
20260509065825 15 124 0.0 1.6 0.00 0.00 0.00 81 1013.7
20260509065723 15 126 0.0 1.6 0.00 0.00 0.00 81 1013.7
20260509065621 15 124 0.0 1.6 0.00 0.00 0.00 81 1013.7
20260509065521 15 124 0.0 1.6 0.00 0.00 0.00 81 1013.6
20260509065418 16 124 0.0 1.6 0.00 0.00 0.00 81 1013.7
20260509065317 16 124 0.0 1.6 0.00 0.00 0.00 81 1013.6
20260509065214 16 124 0.0 1.6 0.00 0.00 0.00 81 1013.6
20260509065122 16 124 0.0 1.6 0.00 0.00 0.00 81 1013.6
20260509065013 16 117 0.0 1.6 0.00 0.00 0.00 81 1013.7
20260509064910 16 117 0.0 1.6 0.00 0.00 0.00 81 1013.7
20260509064810 16 117 0.0 3.2 0.00 0.00 0.00 80 1013.7
20260509064708 16 117 0.0 3.2 0.00 0.00 0.00 80 1013.7
20260509064606 16 105 0.0 3.2 0.00 0.00 0.00 80 1013.7
20260509064546 16 105 0.0 3.2 0.00 0.00 0.00 80 1013.7
20260509064506 16 105 0.0 3.2 0.00 0.00 0.00 80 1013.6
20260509064434 16 104 0.0 3.2 0.00 0.00 0.00 80 1013.6
20260509064301 16 104 0.0 3.2 0.00 0.00 0.00 80 1013.7
20260509064200 16 105 0.0 3.2 0.00 0.00 0.00 80 1013.7
20260509064101 16 104 0.0 4.8 0.00 0.00 0.00 80 1013.7
20260509064001 16 105 1.6 8.0 0.00 0.00 0.00 79 1013.7
20260509063858 16 96 1.6 8.0 0.00 0.00 0.00 79 1013.7
20260509063820 16 229 1.6 8.0 0.00 0.00 0.00 79 1013.7
20260509063755 16 229 1.6 8.0 0.00 0.00 0.00 79 1013.7
20260509063652 16 229 1.6 8.0 0.00 0.00 0.00 79 1013.7
20260509063555 16 229 1.6 8.0 0.00 0.00 0.00 79 1013.7
20260509063546 16 229 1.6 8.0 0.00 0.00 0.00 79 1013.7
20260509063452 16 230 1.6 8.0 0.00 0.00 0.00 79 1013.7
20260509063429 16 229 1.6 8.0 0.00 0.00 0.00 79 1013.7
20260509063249 16 229 1.6 8.0 0.00 0.00 0.00 79 1013.7
20260509063147 16 229 1.6 8.0 0.00 0.00 0.00 79 1013.7
20260509063047 16 228 1.6 8.0 0.00 0.00 0.00 79 1013.7
20260509062946 16 232 1.6 6.4 0.00 0.00 0.00 79 1013.7
20260509062846 16 219 0.0 6.4 0.00 0.00 0.00 79 1013.7
20260509062820 16 245 0.0 6.4 0.00 0.00 0.00 79 1013.7
20260509062740 16 214 0.0 4.8 0.00 0.00 0.00 79 1013.7
20260509062641 16 217 0.0 4.8 0.00 0.00 0.00 79 1013.7
20260509062541 16 217 0.0 6.4 0.00 0.00 0.00 79 1013.7
20260509062441 16 217 0.0 6.4 0.00 0.00 0.00 79 1013.7
20260509062320 16 217 1.6 6.4 0.00 0.00 0.00 79 1013.6
20260509062241 16 217 1.6 6.4 0.00 0.00 0.00 79 1013.6
20260509062139 16 217 1.6 6.4 0.00 0.00 0.00 79 1013.7
20260509062038 16 217 1.6 6.4 0.00 0.00 0.00 79 1013.6
20260509061938 16 217 1.6 6.4 0.00 0.00 0.00 79 1013.6
20260509061820 16 238 1.6 6.4 0.00 0.00 0.00 79 1013.6
20260509061736 16 195 1.6 6.4 0.00 0.00 0.00 79 1013.7
20260509061631 16 230 1.6 4.8 0.00 0.00 0.00 79 1013.7
20260509061530 16 231 1.6 4.8 0.00 0.00 0.00 79 1013.7
20260509061428 16 231 1.6 4.8 0.00 0.00 0.00 79 1013.7
20260509061317 16 231 0.0 4.8 0.00 0.00 0.00 79 1013.8
20260509061222 16 229 0.0 4.8 0.00 0.00 0.00 79 1013.7
20260509061123 16 239 0.0 4.8 0.00 0.00 0.00 79 1013.7
20260509061023 16 239 0.0 4.8 0.00 0.00 0.00 79 1013.7
20260509060921 16 231 0.0 1.6 0.00 0.00 0.00 79 1013.7
20260509060820 16 230 0.0 1.6 0.00 0.00 0.00 79 1013.7
20260509060715 16 231 0.0 3.2 0.00 0.00 0.00 78 1013.7
20260509060613 16 231 0.0 3.2 0.00 0.00 0.00 78 1013.7
20260509060412 16 230 0.0 3.2 0.00 0.00 0.00 78 1013.7
20260509060312 16 231 0.0 3.2 0.00 0.00 0.00 78 1013.7
20260509060208 16 231 0.0 3.2 0.00 0.00 0.00 78 1013.7
20260509060109 16 231 0.0 3.2 0.00 0.00 0.00 78 1013.7
20260509060008 16 231 1.6 8.0 0.00 0.00 0.00 78 1013.7
20260509055909 17 231 1.6 8.0 0.00 0.00 0.00 78 1013.7
20260509055806 17 231 1.6 8.0 0.00 0.00 0.00 78 1013.7
20260509055702 17 230 1.6 8.0 0.00 0.00 0.00 78 1013.7
20260509055601 17 231 1.6 8.0 0.00 0.00 0.00 78 1013.6
20260509055501 17 231 1.6 8.0 0.00 0.00 0.00 78 1013.6
20260509055401 17 232 1.6 8.0 0.00 0.00 0.00 78 1013.6
20260509055312 17 242 1.6 8.0 0.00 0.00 0.00 77 1013.6
20260509055301 17 242 1.6 8.0 0.00 0.00 0.00 77 1013.6
20260509055201 17 242 1.6 8.0 0.00 0.00 0.00 77 1013.6
20260509055058 17 242 1.6 8.0 0.00 0.00 0.00 77 1013.6
20260509054957 17 238 1.6 8.0 0.00 0.00 0.00 78 1013.6
20260509054856 17 225 1.6 6.4 0.00 0.00 0.00 77 1013.6
20260509054814 17 175 1.6 6.4 0.00 0.00 0.00 78 1013.6
20260509054801 17 214 1.6 8.0 0.00 0.00 0.00 77 1013.6
20260509054754 17 228 1.6 6.4 0.00 0.00 0.00 78 1013.6
20260509054652 17 232 1.6 4.8 0.00 0.00 0.00 77 1013.6
20260509054640 17 232 1.6 4.8 0.00 0.00 0.00 77 1013.6
20260509054454 17 214 1.6 4.8 0.00 0.00 0.00 77 1013.6
20260509054424 17 214 1.6 8.0 0.00 0.00 0.00 77 1013.6
20260509054248 17 214 1.6 8.0 0.00 0.00 0.00 77 1013.6
20260509054142 17 235 1.6 8.0 0.00 0.00 0.00 77 1013.5
20260509054043 17 236 1.6 8.0 0.00 0.00 0.00 77 1013.6
20260509054030 17 236 1.6 8.0 0.00 0.00 0.00 77 1013.5
20260509053948 17 236 1.6 8.0 0.00 0.00 0.00 77 1013.5
20260509053920 17 236 1.6 8.0 0.00 0.00 0.00 77 1013.5
20260509053742 17 232 1.6 8.0 0.00 0.00 0.00 77 1013.5
20260509053637 17 222 1.6 8.0 0.00 0.00 0.00 77 1013.5
20260509053537 17 212 1.6 8.0 0.00 0.00 0.00 77 1013.5
20260509053436 17 206 1.6 8.0 0.00 0.00 0.00 77 1013.5
20260509053308 17 203 1.6 8.0 0.00 0.00 0.00 77 1013.5
20260509053237 17 203 1.6 8.0 0.00 0.00 0.00 77 1013.5
20260509053133 17 321 1.6 8.0 0.00 0.00 0.00 76 1013.5
20260509053031 17 235 1.6 8.0 0.00 0.00 0.00 76 1013.5
20260509052931 17 218 1.6 9.7 0.00 0.00 0.00 76 1013.5
20260509052830 17 240 1.6 9.7 0.00 0.00 0.00 76 1013.5
20260509052808 17 231 1.6 9.7 0.00 0.00 0.00 76 1013.5
20260509052730 17 218 1.6 9.7 0.00 0.00 0.00 76 1013.5
20260509052625 17 219 3.2 9.7 0.00 0.00 0.00 76 1013.5
20260509052524 17 214 3.2 9.7 0.00 0.00 0.00 76 1013.5
20260509052425 17 281 3.2 9.7 0.00 0.00 0.00 76 1013.5
20260509052325 17 214 3.2 14.5 0.00 0.00 0.00 76 1013.4
20260509052311 17 250 3.2 14.5 0.00 0.00 0.00 76 1013.4
20260509052224 17 239 3.2 14.5 0.00 0.00 0.00 76 1013.4
20260509052123 17 232 3.2 14.5 0.00 0.00 0.00 75 1013.5
20260509052032 17 245 3.2 14.5 0.00 0.00 0.00 75 1013.4
20260509052023 17 246 3.2 14.5 0.00 0.00 0.00 75 1013.4
20260509051928 17 270 3.2 14.5 0.00 0.00 0.00 75 1013.4
20260509051919 17 245 3.2 14.5 0.00 0.00 0.00 75 1013.4
20260509051718 17 236 3.2 14.5 0.00 0.00 0.00 75 1013.4
20260509051615 17 298 3.2 14.5 0.00 0.00 0.00 75 1013.4
20260509051513 17 222 3.2 14.5 0.00 0.00 0.00 75 1013.4
20260509051414 17 210 3.2 14.5 0.00 0.00 0.00 75 1013.4
20260509051320 17 242 3.2 9.7 0.00 0.00 0.00 75 1013.4
20260509051309 17 219 3.2 9.7 0.00 0.00 0.00 75 1013.4
20260509051212 17 270 3.2 9.7 0.00 0.00 0.00 75 1013.4
20260509051110 17 239 3.2 9.7 0.00 0.00 0.00 75 1013.3
20260509051010 17 229 3.2 9.7 0.00 0.00 0.00 75 1013.3
20260509050909 17 231 3.2 9.7 0.00 0.00 0.00 75 1013.3
20260509050815 17 224 3.2 9.7 0.00 0.00 0.00 75 1013.4
20260509050808 17 223 3.2 9.7 0.00 0.00 0.00 75 1013.4
20260509050707 17 226 3.2 9.7 0.00 0.00 0.00 75 1013.3
20260509050603 18 250 3.2 9.7 0.00 0.00 0.00 75 1013.3
20260509050503 18 242 3.2 9.7 0.00 0.00 0.00 75 1013.4
20260509050403 18 232 3.2 9.7 0.00 0.00 0.00 75 1013.4
20260509050311 18 262 3.2 9.7 0.00 0.00 0.00 75 1013.4
20260509050302 18 262 3.2 9.7 0.00 0.00 0.00 75 1013.4
20260509050201 18 240 3.2 9.7 0.00 0.00 0.00 75 1013.4
20260509050057 18 257 4.8 16.1 0.00 0.00 0.00 74 1013.4
20260509050034 18 243 4.8 16.1 0.00 0.00 0.00 74 1013.4
20260509045955 18 228 4.8 16.1 0.00 0.00 0.00 74 1013.4
20260509045917 18 250 4.8 16.1 0.00 0.00 0.00 74 1013.4
20260509045759 18 235 4.8 16.1 0.00 0.00 0.00 74 1013.4
20260509045654 18 255 4.8 16.1 0.00 0.00 0.00 74 1013.4
20260509045551 18 229 4.8 16.1 0.00 0.00 0.00 74 1013.4
20260509045449 18 248 4.8 16.1 0.00 0.00 0.00 74 1013.4
20260509045348 18 274 3.2 16.1 0.00 0.00 0.00 74 1013.4
20260509045306 18 250 3.2 16.1 0.00 0.00 0.00 74 1013.4
20260509045248 18 222 3.2 16.1 0.00 0.00 0.00 74 1013.4
20260509045146 18 280 3.2 16.1 0.00 0.00 0.00 74 1013.4
20260509045041 18 236 3.2 12.9 0.00 0.00 0.00 74 1013.4
20260509044941 18 236 4.8 12.9 0.00 0.00 0.00 74 1013.3
20260509044840 18 225 4.8 12.9 0.00 0.00 0.00 74 1013.4
20260509044804 18 232 4.8 12.9 0.00 0.00 0.00 74 1013.4
20260509044751 18 214 3.2 12.9 0.00 0.00 0.00 73 1013.3
20260509044739 18 223 4.8 12.9 0.00 0.00 0.00 74 1013.4
20260509044644 18 259 4.8 12.9 0.00 0.00 0.00 73 1013.4
20260509044635 18 238 4.8 12.9 0.00 0.00 0.00 73 1013.4
20260509044432 18 228 3.2 12.9 0.00 0.00 0.00 73 1013.4
20260509044416 18 269 3.2 12.9 0.00 0.00 0.00 73 1013.3
20260509044234 18 281 3.2 12.9 0.00 0.00 0.00 73 1013.3
20260509044131 18 259 3.2 12.9 0.00 0.00 0.00 73 1013.3
20260509044025 18 252 3.2 12.9 0.00 0.00 0.00 73 1013.4
20260509043925 18 232 3.2 12.9 0.00 0.00 0.00 73 1013.3
20260509043824 18 256 3.2 12.9 0.00 0.00 0.00 73 1013.3
20260509043806 18 263 3.2 12.9 0.00 0.00 0.00 73 1013.3
20260509043725 18 263 1.6 12.9 0.00 0.00 0.00 73 1013.3
20260509043624 18 253 1.6 11.3 0.00 0.00 0.00 73 1013.3
20260509043521 18 210 1.6 11.3 0.00 0.00 0.00 73 1013.3
20260509043419 18 240 1.6 11.3 0.00 0.00 0.00 73 1013.4
20260509043318 18 214 1.6 11.3 0.00 0.00 0.00 73 1013.4
20260509043258 18 226 1.6 11.3 0.00 0.00 0.00 73 1013.4
20260509043218 18 248 1.6 11.3 0.00 0.00 0.00 73 1013.4
20260509043118 18 225 1.6 8.0 0.00 0.00 0.00 73 1013.4
20260509043017 18 262 1.6 8.0 0.00 0.00 0.00 73 1013.4
20260509042916 19 270 1.6 8.0 0.00 0.00 0.00 73 1013.4
20260509042815 19 232 1.6 6.4 0.00 0.00 0.00 73 1013.3
20260509042758 19 233 1.6 4.8 0.00 0.00 0.00 73 1013.3
20260509042715 19 233 1.6 4.8 0.00 0.00 0.00 73 1013.3
20260509042613 19 246 1.6 9.7 0.00 0.00 0.00 73 1013.3
20260509042513 19 228 1.6 9.7 0.00 0.00 0.00 73 1013.3
20260509042411 19 228 1.6 9.7 0.00 0.00 0.00 73 1013.3
20260509042309 19 207 3.2 9.7 0.00 0.00 0.00 73 1013.3
20260509042246 19 250 3.2 9.7 0.00 0.00 0.00 73 1013.3
20260509042209 19 250 3.2 9.7 0.00 0.00 0.00 72 1013.3
20260509042106 19 253 3.2 9.7 0.00 0.00 0.00 72 1013.3
20260509042001 19 230 3.2 12.9 0.00 0.00 0.00 72 1013.3
20260509041901 19 229 3.2 12.9 0.00 0.00 0.00 72 1013.3
20260509041800 19 250 4.8 12.9 0.00 0.00 0.00 72 1013.3
20260509041740 19 262 4.8 12.9 0.00 0.00 0.00 72 1013.2
20260509041701 19 253 4.8 12.9 0.00 0.00 0.00 72 1013.2
20260509041600 19 232 3.2 12.9 0.00 0.00 0.00 72 1013.2
20260509041455 19 232 4.8 12.9 0.00 0.00 0.00 72 1013.2
20260509041354 19 226 3.2 12.9 0.00 0.00 0.00 72 1013.2
20260509041255 19 257 3.2 12.9 0.00 0.00 0.00 72 1013.2
20260509041239 19 212 3.2 12.9 0.00 0.00 0.00 72 1013.2
20260509041154 19 239 3.2 12.9 0.00 0.00 0.00 72 1013.2
20260509041054 19 249 3.2 12.9 0.00 0.00 0.00 72 1013.1
20260509040953 19 233 3.2 9.7 0.00 0.00 0.00 72 1013.1
20260509040852 19 232 3.2 9.7 0.00 0.00 0.00 72 1013.1
20260509040756 20 245 1.6 9.7 0.00 0.00 0.00 72 1013.2
20260509040729 20 228 3.2 9.7 0.00 0.00 0.00 72 1013.1
20260509040651 20 250 3.2 9.7 0.00 0.00 0.00 72 1013.1
20260509040548 20 250 3.2 9.7 0.00 0.00 0.00 72 1013.1
20260509040442 20 214 3.2 9.7 0.00 0.00 0.00 72 1013.1
20260509040342 20 214 3.2 9.7 0.00 0.00 0.00 72 1013.1
20260509040243 20 233 3.2 9.7 0.00 0.00 0.00 71 1013.1
20260509040221 20 281 3.2 9.7 0.00 0.00 0.00 71 1013.1
20260509040143 20 225 3.2 9.7 0.00 0.00 0.00 71 1013.1
20260509040042 20 243 3.2 9.7 0.00 0.00 0.00 71 1013.0
20260509035940 20 229 3.2 8.0 0.00 0.00 0.00 71 1013.1
20260509035841 20 252 3.2 8.0 0.00 0.00 0.00 71 1013.0
20260509035739 20 235 3.2 8.0 0.00 0.00 0.00 71 1012.9
20260509035717 20 252 3.2 11.3 0.00 0.00 0.00 71 1012.9
20260509035639 20 245 3.2 11.3 0.00 0.00 0.00 71 1012.9
20260509035537 20 239 3.2 11.3 0.00 0.00 0.00 71 1013.0
20260509035435 20 229 3.2 11.3 0.00 0.00 0.00 71 1013.0
20260509035333 20 256 3.2 11.3 0.00 0.00 0.00 71 1012.9
20260509035236 20 229 3.2 11.3 0.00 0.00 0.00 71 1013.0
20260509035211 20 235 3.2 11.3 0.00 0.00 0.00 71 1013.0
20260509035132 20 232 4.8 11.3 0.00 0.00 0.00 71 1012.9
20260509035030 20 248 4.8 14.5 0.00 0.00 0.00 71 1012.9
20260509034926 20 239 4.8 14.5 0.00 0.00 0.00 70 1012.9
20260509034827 20 253 4.8 14.5 0.00 0.00 0.00 70 1012.9
20260509034728 20 239 4.8 14.5 0.00 0.00 0.00 70 1012.9
20260509034718 20 250 4.8 14.5 0.00 0.00 0.00 70 1012.9
20260509034627 20 302 4.8 14.5 0.00 0.00 0.00 70 1012.9
20260509034524 20 250 4.8 14.5 0.00 0.00 0.00 70 1012.9
20260509034421 20 235 4.8 14.5 0.00 0.00 0.00 70 1012.9
20260509034318 20 263 4.8 14.5 0.00 0.00 0.00 70 1012.9
20260509034219 20 186 4.8 16.1 0.00 0.00 0.00 70 1012.9
20260509034158 20 197 4.8 16.1 0.00 0.00 0.00 70 1012.9
20260509034118 20 256 4.8 16.1 0.00 0.00 0.00 70 1012.9
20260509034018 20 250 4.8 16.1 0.00 0.00 0.00 70 1012.9
20260509033914 20 228 4.8 16.1 0.00 0.00 0.00 70 1012.9
20260509033815 20 228 6.4 16.1 0.00 0.00 0.00 70 1012.9
20260509033715 20 239 6.4 16.1 0.00 0.00 0.00 70 1012.9
20260509033651 20 239 6.4 16.1 0.00 0.00 0.00 70 1012.9
20260509033615 21 239 6.4 16.1 0.00 0.00 0.00 70 1012.9
20260509033512 21 236 6.4 16.1 0.00 0.00 0.00 70 1012.9
20260509033409 21 256 6.4 16.1 0.00 0.00 0.00 70 1012.9
20260509033307 21 250 4.8 16.1 0.00 0.00 0.00 70 1012.9
20260509033210 21 256 4.8 16.1 0.00 0.00 0.00 70 1012.9
20260509033153 21 239 4.8 16.1 0.00 0.00 0.00 70 1012.9
20260509033107 21 237 4.8 16.1 0.00 0.00 0.00 70 1012.9
20260509033006 21 208 4.8 14.5 0.00 0.00 0.00 70 1012.9
20260509032900 21 236 4.8 14.5 0.00 0.00 0.00 70 1012.9
20260509032801 21 221 4.8 14.5 0.00 0.00 0.00 70 1013.0
20260509032701 21 225 4.8 14.5 0.00 0.00 0.00 70 1012.9
20260509032650 21 229 4.8 14.5 0.00 0.00 0.00 70 1012.9
20260509032600 21 229 6.4 14.5 0.00 0.00 0.00 70 1012.9
20260509032501 21 223 4.8 14.5 0.00 0.00 0.00 70 1012.9
20260509032357 21 239 4.8 14.5 0.00 0.00 0.00 70 1013.0
20260509032257 21 250 4.8 14.5 0.00 0.00 0.00 70 1012.9
20260509032159 21 211 6.4 14.5 0.00 0.00 0.00 70 1012.9
20260509032148 21 197 6.4 14.5 0.00 0.00 0.00 70 1012.9
20260509032056 21 248 4.8 14.5 0.00 0.00 0.00 70 1012.9
20260509031955 21 229 4.8 12.9 0.00 0.00 0.00 70 1012.9
20260509031849 21 231 3.2 12.9 0.00 0.00 0.00 70 1012.9
20260509031749 21 233 3.2 11.3 0.00 0.00 0.00 70 1012.9
20260509031655 21 268 3.2 11.3 0.00 0.00 0.00 70 1012.9
20260509031648 21 269 3.2 11.3 0.00 0.00 0.00 70 1012.9
20260509031549 21 193 3.2 11.3 0.00 0.00 0.00 70 1013.0
20260509031448 21 226 4.8 12.9 0.00 0.00 0.00 70 1012.9
20260509031345 21 260 4.8 12.9 0.00 0.00 0.00 70 1012.9
20260509031243 21 224 4.8 12.9 0.00 0.00 0.00 69 1012.9
20260509031150 21 225 4.8 12.9 0.00 0.00 0.00 69 1012.9
20260509031142 21 228 4.8 14.5 0.00 0.00 0.00 69 1012.9
20260509031043 21 239 4.8 14.5 0.00 0.00 0.00 69 1012.9
20260509030942 21 238 6.4 17.7 0.00 0.00 0.00 69 1012.8
20260509030838 21 230 6.4 17.7 0.00 0.00 0.00 69 1012.8
20260509030737 21 212 6.4 17.7 0.00 0.00 0.00 69 1012.8
20260509030648 21 250 6.4 17.7 0.00 0.00 0.00 68 1012.8
20260509030637 21 259 6.4 17.7 0.00 0.00 0.00 68 1012.8
20260509030537 21 235 6.4 17.7 0.00 0.00 0.00 69 1012.8
20260509030436 22 240 6.4 17.7 0.00 0.00 0.00 68 1012.8
20260509030331 22 228 6.4 17.7 0.00 0.00 0.00 68 1012.8
20260509030231 22 243 6.4 17.7 0.00 0.00 0.00 68 1012.8
20260509030146 22 226 6.4 17.7 0.00 0.00 0.00 68 1012.8
20260509030131 22 219 6.4 17.7 0.00 0.00 0.00 68 1012.8
20260509030031 22 250 4.8 17.7 0.00 0.00 0.00 68 1012.8
20260509025930 22 235 4.8 14.5 0.00 0.00 0.00 68 1012.7
20260509025827 22 241 4.8 14.5 0.00 0.00 0.00 68 1012.7
20260509025727 22 246 4.8 14.5 0.00 0.00 0.00 67 1012.7
20260509025647 22 229 4.8 14.5 0.00 0.00 0.00 67 1012.7
20260509025627 22 255 4.8 14.5 0.00 0.00 0.00 67 1012.7
20260509025526 22 242 4.8 14.5 0.00 0.00 0.00 67 1012.7
20260509025423 22 243 4.8 14.5 0.00 0.00 0.00 67 1012.6
20260509025407 22 262 6.4 14.5 0.00 0.00 0.00 67 1012.6
20260509025319 22 242 4.8 14.5 0.00 0.00 0.00 67 1012.7
20260509025255 22 233 6.4 14.5 0.00 0.00 0.00 67 1012.6
20260509025119 22 208 6.4 14.5 0.00 0.00 0.00 67 1012.6
20260509025019 22 229 6.4 14.5 0.00 0.00 0.00 67 1012.6
20260509024918 22 229 6.4 14.5 0.00 0.00 0.00 66 1012.6
20260509024813 22 232 4.8 14.5 0.00 0.00 0.00 66 1012.6
20260509024713 22 238 6.4 14.5 0.00 0.00 0.00 66 1012.6
20260509024645 22 270 6.4 14.5 0.00 0.00 0.00 66 1012.6
20260509024613 22 253 4.8 14.5 0.00 0.00 0.00 66 1012.6
20260509024513 22 225 4.8 12.9 0.00 0.00 0.00 66 1012.6
20260509024412 22 193 4.8 12.9 0.00 0.00 0.00 66 1012.6
20260509024404 22 226 3.2 12.9 0.00 0.00 0.00 65 1012.5
20260509024310 22 222 3.2 12.9 0.00 0.00 0.00 66 1012.6
20260509024255 22 246 3.2 12.9 0.00 0.00 0.00 65 1012.5
20260509024108 23 243 3.2 12.9 0.00 0.00 0.00 65 1012.5
20260509024007 23 256 3.2 14.5 0.00 0.00 0.00 66 1012.5
20260509023906 23 238 3.2 14.5 0.00 0.00 0.00 65 1012.5
20260509023806 23 230 4.8 14.5 0.00 0.00 0.00 65 1012.5
20260509023705 23 257 3.2 20.9 0.00 0.00 0.00 65 1012.5
20260509023642 23 226 3.2 20.9 0.00 0.00 0.00 65 1012.6
20260509023603 23 236 4.8 20.9 0.00 0.00 0.00 65 1012.6
20260509023502 23 228 4.8 20.9 0.00 0.00 0.00 65 1012.5
20260509023401 23 248 6.4 20.9 0.00 0.00 0.00 65 1012.6
20260509023300 23 238 6.4 20.9 0.00 0.00 0.00 65 1012.6
20260509023156 23 238 6.4 20.9 0.00 0.00 0.00 65 1012.5
20260509023145 23 233 6.4 20.9 0.00 0.00 0.00 65 1012.5
20260509023054 23 235 6.4 20.9 0.00 0.00 0.00 64 1012.5
20260509022955 23 245 6.4 20.9 0.00 0.00 0.00 64 1012.5
20260509022854 23 200 4.8 20.9 0.00 0.00 0.00 64 1012.5
20260509022752 23 242 4.8 14.5 0.00 0.00 0.00 64 1012.5
20260509022643 23 262 4.8 14.5 0.00 0.00 0.00 64 1012.5
20260509022549 23 256 4.8 14.5 0.00 0.00 0.00 64 1012.5
20260509022449 23 239 4.8 14.5 0.00 0.00 0.00 64 1012.5
20260509022409 23 219 6.4 16.1 0.00 0.00 0.00 64 1012.5
20260509022348 23 229 4.8 12.9 0.00 0.00 0.00 64 1012.5
20260509022301 23 242 4.8 16.1 0.00 0.00 0.00 64 1012.5
20260509022251 23 219 6.4 16.1 0.00 0.00 0.00 64 1012.5
20260509022045 23 223 6.4 16.1 0.00 0.00 0.00 64 1012.6
20260509021944 23 161 6.4 16.1 0.00 0.00 0.00 63 1012.6
20260509021845 23 123 6.4 16.1 0.00 0.00 0.00 63 1012.6
20260509021745 23 224 6.4 16.1 0.00 0.00 0.00 63 1012.5
20260509021646 23 255 6.4 16.1 0.00 0.00 0.00 63 1012.5
20260509021545 23 228 6.4 16.1 0.00 0.00 0.00 63 1012.5
20260509021444 23 259 6.4 16.1 0.00 0.00 0.00 63 1012.5
20260509021345 23 236 6.4 16.1 0.00 0.00 0.00 63 1012.5
20260509021245 23 246 6.4 16.1 0.00 0.00 0.00 62 1012.5
20260509021148 23 242 6.4 19.3 0.00 0.00 0.00 62 1012.5
20260509021044 23 243 6.4 19.3 0.00 0.00 0.00 62 1012.5
20260509020945 24 239 6.4 19.3 0.00 0.00 0.00 62 1012.5
20260509020845 24 233 6.4 19.3 0.00 0.00 0.00 62 1012.6
20260509020745 24 231 6.4 19.3 0.00 0.00 0.00 62 1012.5
20260509020646 24 242 8.0 19.3 0.00 0.00 0.00 62 1012.6
20260509020538 24 231 8.0 19.3 0.00 0.00 0.00 62 1012.6
20260509020438 24 215 8.0 19.3 0.00 0.00 0.00 61 1012.5
20260509020339 24 240 8.0 19.3 0.00 0.00 0.00 61 1012.5
20260509020238 24 266 8.0 19.3 0.00 0.00 0.00 61 1012.5
20260509020139 24 231 8.0 17.7 0.00 0.00 0.00 61 1012.5
20260509020031 24 229 8.0 17.7 0.00 0.00 0.00 61 1012.5
20260509015931 24 239 8.0 17.7 0.00 0.00 0.00 61 1012.6
20260509015831 24 232 6.4 17.7 0.00 0.00 0.00 60 1012.5
20260509015731 24 248 6.4 17.7 0.00 0.00 0.00 61 1012.6
20260509015633 24 248 6.4 17.7 0.00 0.00 0.00 61 1012.6
20260509015527 24 207 6.4 17.7 0.00 0.00 0.00 61 1012.5
20260509015425 25 255 4.8 17.7 0.00 0.00 0.00 61 1012.5
20260509015325 25 229 4.8 17.7 0.00 0.00 0.00 61 1012.5
20260509015224 25 240 3.2 17.7 0.00 0.00 0.00 61 1012.5
20260509015127 25 221 3.2 16.1 0.00 0.00 0.00 61 1012.5
20260509015059 25 208 6.4 17.7 0.00 0.00 0.00 60 1012.5
20260509015019 25 207 3.2 16.1 0.00 0.00 0.00 61 1012.5
20260509014950 25 271 4.8 16.1 0.00 0.00 0.00 60 1012.6
20260509014819 25 239 4.8 16.1 0.00 0.00 0.00 60 1012.5
20260509014735 25 215 4.8 16.1 0.00 0.00 0.00 60 1012.6
20260509014724 25 208 6.4 17.7 0.00 0.00 0.00 60 1012.5
20260509014513 25 284 6.4 17.7 0.00 0.00 0.00 60 1012.6
20260509014413 25 238 6.4 19.3 0.00 0.00 0.00 59 1012.6
20260509014312 25 222 8.0 19.3 0.00 0.00 0.00 59 1012.7
20260509014213 25 250 8.0 19.3 0.00 0.00 0.00 59 1012.7
20260509014115 25 232 8.0 19.3 0.00 0.00 0.00 59 1012.7
20260509014007 25 256 8.0 19.3 0.00 0.00 0.00 59 1012.7
20260509013906 25 239 8.0 19.3 0.00 0.00 0.00 59 1012.7
20260509013807 25 215 8.0 19.3 0.00 0.00 0.00 59 1012.7
20260509013707 25 250 8.0 20.9 0.00 0.00 0.00 59 1012.7
20260509013609 25 228 8.0 20.9 0.00 0.00 0.00 59 1012.7
20260509013500 25 207 8.0 20.9 0.00 0.00 0.00 59 1012.7
20260509013401 25 250 8.0 20.9 0.00 0.00 0.00 59 1012.7
20260509013301 25 222 8.0 20.9 0.00 0.00 0.00 59 1012.7
20260509013201 25 277 8.0 20.9 0.00 0.00 0.00 59 1012.7
20260509013102 25 260 8.0 20.9 0.00 0.00 0.00 59 1012.7
20260509012957 25 229 8.0 20.9 0.00 0.00 0.00 58 1012.7
20260509012855 25 236 9.7 20.9 0.00 0.00 0.00 58 1012.8
20260509012754 25 224 8.0 20.9 0.00 0.00 0.00 58 1012.8
20260509012655 25 221 8.0 20.9 0.00 0.00 0.00 58 1012.8
20260509012555 25 219 8.0 20.9 0.00 0.00 0.00 58 1012.8
20260509012449 25 204 6.4 20.9 0.00 0.00 0.00 58 1012.7
20260509012349 25 215 6.4 20.9 0.00 0.00 0.00 58 1012.8
20260509012248 26 229 4.8 20.9 0.00 0.00 0.00 58 1012.8
20260509012149 26 235 4.8 20.9 0.00 0.00 0.00 57 1012.8
20260509012051 26 232 4.8 20.9 0.00 0.00 0.00 57 1012.8
20260509011947 26 194 3.2 19.3 0.00 0.00 0.00 57 1012.8
20260509011847 26 243 3.2 19.3 0.00 0.00 0.00 58 1012.8
20260509011745 26 193 3.2 12.9 0.00 0.00 0.00 58 1012.8
20260509011645 26 236 3.2 12.9 0.00 0.00 0.00 58 1012.8
20260509011545 26 240 3.2 12.9 0.00 0.00 0.00 58 1012.8
20260509011436 26 270 3.2 12.9 0.00 0.00 0.00 58 1012.8
20260509011338 26 259 3.2 12.9 0.00 0.00 0.00 57 1012.7
20260509011300 26 284 4.8 12.9 0.00 0.00 0.00 57 1012.7
20260509011237 26 277 3.2 12.9 0.00 0.00 0.00 58 1012.8
20260509011153 26 274 4.8 12.9 0.00 0.00 0.00 57 1012.7
20260509011142 26 284 4.8 12.9 0.00 0.00 0.00 57 1012.7
20260509010931 26 207 4.8 17.7 0.00 0.00 0.00 57 1012.8
20260509010831 26 248 4.8 17.7 0.00 0.00 0.00 57 1012.8
20260509010731 26 256 4.8 17.7 0.00 0.00 0.00 57 1012.8
20260509010630 26 232 4.8 17.7 0.00 0.00 0.00 57 1012.8
20260509010532 26 237 4.8 17.7 0.00 0.00 0.00 57 1012.8
20260509010427 26 234 4.8 17.7 0.00 0.00 0.00 57 1012.8
20260509010324 26 284 4.8 17.7 0.00 0.00 0.00 56 1012.8
20260509010225 26 236 4.8 17.7 0.00 0.00 0.00 56 1012.8
20260509010125 26 238 4.8 17.7 0.00 0.00 0.00 56 1012.9
20260509010027 26 246 4.8 17.7 0.00 0.00 0.00 56 1012.8
20260509005919 26 253 4.8 14.5 0.00 0.00 0.00 57 1012.8
20260509005818 26 226 4.8 17.7 0.00 0.00 0.00 57 1012.8
20260509005750 26 224 6.4 17.7 0.00 0.00 0.00 57 1012.8
20260509005718 26 274 4.8 17.7 0.00 0.00 0.00 57 1012.8
20260509005636 26 204 6.4 17.7 0.00 0.00 0.00 57 1012.8
20260509005625 26 224 6.4 17.7 0.00 0.00 0.00 57 1012.8
20260509005415 26 191 6.4 17.7 0.00 0.00 0.00 56 1012.8
20260509005313 26 214 6.4 17.7 0.00 0.00 0.00 56 1012.8
20260509005212 26 262 8.0 17.7 0.00 0.00 0.00 56 1012.8
20260509005113 26 264 8.0 17.7 0.00 0.00 0.00 56 1012.8
20260509005014 26 259 8.0 17.7 0.00 0.00 0.00 56 1012.8
20260509004907 26 276 8.0 17.7 0.00 0.00 0.00 56 1012.8
20260509004806 26 220 6.4 17.7 0.00 0.00 0.00 56 1012.9
20260509004707 27 203 6.4 17.7 0.00 0.00 0.00 55 1012.8
20260509004607 27 218 4.8 17.7 0.00 0.00 0.00 56 1012.8
20260509004508 27 204 4.8 17.7 0.00 0.00 0.00 55 1012.8
20260509004400 27 255 4.8 17.7 0.00 0.00 0.00 55 1012.8
20260509004301 27 228 3.2 16.1 0.00 0.00 0.00 55 1012.8
20260509004200 27 208 3.2 12.9 0.00 0.00 0.00 55 1012.8
20260509004101 27 231 3.2 12.9 0.00 0.00 0.00 55 1012.8
20260509004004 27 236 3.2 11.3 0.00 0.00 0.00 55 1012.9
20260509003854 27 205 1.6 11.3 0.00 0.00 0.00 56 1012.9
20260509003755 27 233 1.6 11.3 0.00 0.00 0.00 55 1012.8
20260509003655 27 233 1.6 11.3 0.00 0.00 0.00 55 1012.8
20260509003555 27 248 1.6 11.3 0.00 0.00 0.00 55 1012.9
20260509003454 27 235 1.6 11.3 0.00 0.00 0.00 55 1012.9
20260509003349 27 248 1.6 11.3 0.00 0.00 0.00 54 1012.9
20260509003249 27 246 1.6 11.3 0.00 0.00 0.00 55 1012.9
20260509003148 27 261 1.6 11.3 0.00 0.00 0.00 54 1012.9
20260509003049 27 229 1.6 11.3 0.00 0.00 0.00 55 1013.0
20260509002958 27 207 1.6 9.7 0.00 0.00 0.00 55 1012.9
20260509002948 27 235 1.6 9.7 0.00 0.00 0.00 55 1012.9
20260509002845 27 235 3.2 14.5 0.00 0.00 0.00 55 1012.9
20260509002743 27 235 3.2 14.5 0.00 0.00 0.00 56 1012.9
20260509002642 27 235 4.8 14.5 0.00 0.00 0.00 55 1012.9
20260509002543 27 235 4.8 14.5 0.00 0.00 0.00 54 1012.9
20260509002459 27 228 4.8 14.5 0.00 0.00 0.00 55 1012.9
20260509002441 27 236 4.8 14.5 0.00 0.00 0.00 55 1013.0
20260509002341 27 232 4.8 14.5 0.00 0.00 0.00 55 1013.0
20260509002241 27 245 6.4 14.5 0.00 0.00 0.00 55 1013.0
20260509002139 27 219 6.4 16.1 0.00 0.00 0.00 54 1013.0
20260509002038 27 240 6.4 16.1 0.00 0.00 0.00 54 1013.0
20260509001956 27 240 6.4 16.1 0.00 0.00 0.00 54 1013.0
20260509001936 27 259 6.4 16.1 0.00 0.00 0.00 54 1013.0
20260509001833 27 208 6.4 16.1 0.00 0.00 0.00 54 1013.0
20260509001736 27 246 6.4 16.1 0.00 0.00 0.00 54 1013.0
20260509001632 27 238 6.4 16.1 0.00 0.00 0.00 54 1013.0
20260509001533 27 248 6.4 16.1 0.00 0.00 0.00 54 1013.0
20260509001458 27 198 6.4 16.1 0.00 0.00 0.00 54 1013.0
20260509001430 27 218 6.4 16.1 0.00 0.00 0.00 54 1013.1
20260509001325 27 231 6.4 16.1 0.00 0.00 0.00 53 1013.0
20260509001225 28 250 4.8 16.1 0.00 0.00 0.00 53 1013.1
20260509001124 28 226 4.8 12.9 0.00 0.00 0.00 54 1013.1
20260509001025 28 197 4.8 12.9 0.00 0.00 0.00 53 1013.1
20260509000958 28 229 4.8 12.9 0.00 0.00 0.00 53 1013.1
20260509000924 28 239 4.8 12.9 0.00 0.00 0.00 52 1013.1
20260509000825 28 239 4.8 12.9 0.00 0.00 0.00 52 1013.1
20260509000723 28 242 4.8 12.9 0.00 0.00 0.00 52 1013.1
20260509000620 28 243 4.8 12.9 0.00 0.00 0.00 53 1013.1
20260509000519 28 229 4.8 12.9 0.00 0.00 0.00 53 1013.1
20260509000458 28 239 4.8 12.9 0.00 0.00 0.00 53 1013.1
20260509000418 28 276 4.8 12.9 0.00 0.00 0.00 52 1013.1
20260509000319 28 240 4.8 12.9 0.00 0.00 0.00 52 1013.1
20260509000226 28 228 4.8 12.9 0.00 0.00 0.00 52 1013.1
20260509000219 28 275 4.8 12.9 0.00 0.00 0.00 52 1013.1
20260509000118 28 211 4.8 12.9 0.00 0.00 0.00 52 1013.1
20260509000109 28 235 4.8 12.9 0.00 0.00 0.00 52 1013.1
20260508235912 28 224 4.8 12.9 0.00 0.00 0.00 51 1013.1
20260508235809 28 245 4.8 12.9 0.00 0.00 0.00 51 1013.1
20260508235707 28 235 3.2 12.9 0.00 0.00 0.00 51 1013.1
20260508235606 29 236 3.2 11.3 0.00 0.00 0.00 51 1013.2
20260508235507 29 217 3.2 11.3 0.00 0.00 0.00 51 1013.2
20260508235454 29 233 3.2 11.3 0.00 0.00 0.00 51 1013.2
20260508235407 29 222 3.2 11.3 0.00 0.00 0.00 51 1013.2
20260508235306 29 242 3.2 11.3 0.00 0.00 0.00 51 1013.2
20260508235203 29 233 3.2 11.3 0.00 0.00 0.00 51 1013.2
20260508235103 29 211 1.6 9.7 0.00 0.00 0.00 50 1013.2
20260508235002 29 231 1.6 9.7 0.00 0.00 0.00 51 1013.2
20260508234952 29 232 1.6 9.7 0.00 0.00 0.00 51 1013.2
20260508234900 29 243 1.6 9.7 0.00 0.00 0.00 51 1013.2
20260508234800 29 259 1.6 11.3 0.00 0.00 0.00 51 1013.2
20260508234659 29 259 1.6 11.3 0.00 0.00 0.00 50 1013.2
20260508234557 29 259 1.6 11.3 0.00 0.00 0.00 51 1013.2
20260508234453 29 257 1.6 11.3 0.00 0.00 0.00 51 1013.2
20260508234354 29 148 1.6 11.3 0.00 0.00 0.00 51 1013.3
20260508234251 29 148 1.6 11.3 0.00 0.00 0.00 50 1013.3
20260508234149 29 148 1.6 11.3 0.00 0.00 0.00 51 1013.3
20260508234049 29 232 1.6 11.3 0.00 0.00 0.00 50 1013.3
20260508233949 29 232 3.2 11.3 0.00 0.00 0.00 52 1013.3
20260508233848 29 242 1.6 11.3 0.00 0.00 0.00 52 1013.3
20260508233748 29 242 1.6 8.0 0.00 0.00 0.00 52 1013.3
20260508233710 30 214 1.6 8.0 0.00 0.00 0.00 50 1013.3
20260508233642 29 253 1.6 8.0 0.00 0.00 0.00 51 1013.3
20260508233559 29 253 1.6 8.0 0.00 0.00 0.00 50 1013.3
20260508233441 30 211 1.6 8.0 0.00 0.00 0.00 50 1013.3
20260508233340 30 284 1.6 8.0 0.00 0.00 0.00 51 1013.4
20260508233236 30 284 1.6 8.0 0.00 0.00 0.00 51 1013.4
20260508233135 30 8 1.6 8.0 0.00 0.00 0.00 50 1013.4
20260508233034 30 115 0.0 8.0 0.00 0.00 0.00 50 1013.4
20260508232948 30 231 0.0 8.0 0.00 0.00 0.00 50 1013.4
20260508232935 30 212 0.0 8.0 0.00 0.00 0.00 50 1013.5
20260508232834 30 149 1.6 8.0 0.00 0.00 0.00 48 1013.5
20260508232736 30 149 1.6 8.0 0.00 0.00 0.00 49 1013.5
20260508232654 29 93 1.6 14.5 0.00 0.00 0.00 51 1013.5
20260508232632 30 150 1.6 8.0 0.00 0.00 0.00 50 1013.4
20260508232554 29 149 1.6 8.0 0.00 0.00 0.00 50 1013.4
20260508232544 29 149 1.6 8.0 0.00 0.00 0.00 49 1013.4
20260508232430 29 150 1.6 8.0 0.00 0.00 0.00 49 1013.4
20260508232329 29 149 1.6 8.0 0.00 0.00 0.00 49 1013.5
20260508232320 29 222 1.6 8.0 0.00 0.00 0.00 51 1013.5
20260508232124 29 236 3.2 8.0 0.00 0.00 0.00 50 1013.5
20260508232100 29 236 1.6 14.5 0.00 0.00 0.00 50 1013.5
20260508231921 29 162 1.6 14.5 0.00 0.00 0.00 51 1013.5
20260508231820 29 314 1.6 14.5 0.00 0.00 0.00 51 1013.5
20260508231721 29 314 1.6 14.5 0.00 0.00 0.00 52 1013.5
20260508231708 29 215 1.6 14.5 0.00 0.00 0.00 51 1013.5
20260508231619 29 216 1.6 14.5 0.00 0.00 0.00 52 1013.5
20260508231557 29 215 1.6 14.5 0.00 0.00 0.00 51 1013.5
20260508231417 29 236 1.6 14.5 0.00 0.00 0.00 51 1013.5
20260508231314 29 223 1.6 14.5 0.00 0.00 0.00 51 1013.5
20260508231209 29 113 1.6 14.5 0.00 0.00 0.00 50 1013.5
20260508231108 29 246 1.6 14.5 0.00 0.00 0.00 51 1013.5
20260508231009 29 222 1.6 6.4 0.00 0.00 0.00 51 1013.5
20260508230946 29 218 1.6 6.4 0.00 0.00 0.00 52 1013.5
20260508230909 29 232 1.6 6.4 0.00 0.00 0.00 52 1013.5
20260508230806 29 233 1.6 6.4 0.00 0.00 0.00 51 1013.6
20260508230703 29 221 1.6 6.4 0.00 0.00 0.00 50 1013.6
20260508230602 29 297 1.6 6.4 0.00 0.00 0.00 50 1013.6
20260508230445 29 298 1.6 9.7 0.00 0.00 0.00 49 1013.6
20260508230403 29 315 1.6 9.7 0.00 0.00 0.00 49 1013.6
20260508230301 29 8 1.6 9.7 0.00 0.00 0.00 49 1013.6
20260508230154 29 316 1.6 11.3 0.00 0.00 0.00 51 1013.6
20260508230054 29 223 1.6 11.3 0.00 0.00 0.00 51 1013.7
20260508225942 29 222 1.6 11.3 0.00 0.00 0.00 51 1013.7
20260508225855 29 222 3.2 11.3 0.00 0.00 0.00 51 1013.7
20260508225754 29 213 3.2 11.3 0.00 0.00 0.00 51 1013.7
20260508225651 28 232 3.2 11.3 0.00 0.00 0.00 51 1013.7
20260508225550 29 231 3.2 11.3 0.00 0.00 0.00 50 1013.7
20260508225454 29 206 3.2 11.3 0.00 0.00 0.00 50 1013.8
20260508225443 29 211 3.2 11.3 0.00 0.00 0.00 50 1013.8
20260508225351 29 235 3.2 11.3 0.00 0.00 0.00 52 1013.8
20260508225248 28 293 3.2 11.3 0.00 0.00 0.00 52 1013.8
20260508225207 28 212 3.2 9.7 0.00 0.00 0.00 50 1013.9
20260508225144 28 232 3.2 9.7 0.00 0.00 0.00 52 1013.8
20260508225102 28 212 3.2 9.7 0.00 0.00 0.00 51 1013.8
20260508225051 28 212 3.2 9.7 0.00 0.00 0.00 50 1013.9
20260508224845 28 232 3.2 9.7 0.00 0.00 0.00 51 1013.9
20260508224743 29 232 3.2 9.7 0.00 0.00 0.00 50 1013.9
20260508224636 29 239 1.6 9.7 0.00 0.00 0.00 49 1014.0
20260508224537 29 219 1.6 8.0 0.00 0.00 0.00 49 1014.0
20260508224443 29 224 1.6 8.0 0.00 0.00 0.00 49 1014.0
20260508224436 29 212 1.6 8.0 0.00 0.00 0.00 49 1014.0
20260508224337 29 210 1.6 8.0 0.00 0.00 0.00 51 1014.0
20260508224236 29 239 1.6 8.0 0.00 0.00 0.00 51 1014.0
20260508224131 29 243 1.6 8.0 0.00 0.00 0.00 52 1014.0
20260508224030 28 253 1.6 8.0 0.00 0.00 0.00 51 1014.0
20260508223940 29 108 1.6 8.0 0.00 0.00 0.00 50 1014.0
20260508223931 29 27 1.6 8.0 0.00 0.00 0.00 50 1014.0
20260508223830 29 318 1.6 8.0 0.00 0.00 0.00 49 1014.1
20260508223730 29 335 1.6 8.0 0.00 0.00 0.00 50 1014.1
20260508223630 29 77 1.6 8.0 0.00 0.00 0.00 50 1014.1
20260508223528 29 79 1.6 8.0 0.00 0.00 0.00 50 1014.2
20260508223429 29 79 1.6 8.0 0.00 0.00 0.00 49 1014.2
20260508223327 29 325 1.6 6.4 0.00 0.00 0.00 50 1014.2
20260508223224 29 245 1.6 4.8 0.00 0.00 0.00 51 1014.2
20260508223207 29 177 1.6 6.4 0.00 0.00 0.00 50 1014.2
20260508223121 29 325 1.6 4.8 0.00 0.00 0.00 51 1014.2
20260508223051 29 325 1.6 6.4 0.00 0.00 0.00 50 1014.2
20260508222919 29 172 1.6 6.4 0.00 0.00 0.00 50 1014.2
20260508222819 29 115 1.6 6.4 0.00 0.00 0.00 50 1014.2
20260508222718 29 201 1.6 6.4 0.00 0.00 0.00 51 1014.3
20260508222615 29 238 1.6 6.4 0.00 0.00 0.00 50 1014.3
20260508222513 29 302 1.6 9.7 0.00 0.00 0.00 50 1014.3
20260508222441 29 302 1.6 9.7 0.00 0.00 0.00 50 1014.3
20260508222413 29 302 1.6 9.7 0.00 0.00 0.00 51 1014.3
20260508222313 29 236 1.6 9.7 0.00 0.00 0.00 51 1014.3
20260508222212 29 231 1.6 11.3 0.00 0.00 0.00 51 1014.3
20260508222141 29 216 3.2 11.3 0.00 0.00 0.00 51 1014.4
20260508222113 28 227 1.6 11.3 0.00 0.00 0.00 51 1014.3
20260508222038 28 308 3.2 11.3 0.00 0.00 0.00 52 1014.4
20260508222028 28 308 3.2 11.3 0.00 0.00 0.00 52 1014.4
20260508221911 28 308 3.2 11.3 0.00 0.00 0.00 52 1014.4
20260508221817 28 307 3.2 11.3 0.00 0.00 0.00 51 1014.4
20260508221806 28 307 3.2 11.3 0.00 0.00 0.00 51 1014.4
20260508221603 29 328 3.2 11.3 0.00 0.00 0.00 50 1014.4
20260508221549 29 207 3.2 11.3 0.00 0.00 0.00 51 1014.4
20260508221401 29 215 3.2 11.3 0.00 0.00 0.00 50 1014.4
20260508221303 29 266 1.6 11.3 0.00 0.00 0.00 50 1014.4
20260508221201 29 231 1.6 6.4 0.00 0.00 0.00 50 1014.4
20260508221057 29 239 1.6 6.4 0.00 0.00 0.00 50 1014.4
20260508221001 29 231 1.6 6.4 0.00 0.00 0.00 51 1014.4
20260508220950 29 242 1.6 6.4 0.00 0.00 0.00 51 1014.5
20260508220855 29 266 1.6 4.8 0.00 0.00 0.00 52 1014.5
20260508220755 29 264 1.6 4.8 0.00 0.00 0.00 51 1014.5
20260508220654 29 144 1.6 4.8 0.00 0.00 0.00 50 1014.5
20260508220552 29 101 1.6 4.8 0.00 0.00 0.00 49 1014.5
20260508220452 29 232 1.6 3.2 0.00 0.00 0.00 50 1014.5
20260508220438 29 232 1.6 3.2 0.00 0.00 0.00 50 1014.6
20260508220353 29 217 1.6 3.2 0.00 0.00 0.00 51 1014.6
20260508220250 29 215 1.6 11.3 0.00 0.00 0.00 51 1014.6
20260508220149 28 194 1.6 11.3 0.00 0.00 0.00 51 1014.7
20260508220043 28 226 1.6 11.3 0.00 0.00 0.00 52 1014.7
20260508215947 28 229 1.6 11.3 0.00 0.00 0.00 52 1014.7
20260508215936 28 229 1.6 11.3 0.00 0.00 0.00 52 1014.7
20260508215843 28 273 1.6 11.3 0.00 0.00 0.00 53 1014.7
20260508215742 28 273 3.2 11.3 0.00 0.00 0.00 53 1014.8
20260508215642 28 271 3.2 11.3 0.00 0.00 0.00 53 1014.7
20260508215539 28 266 3.2 11.3 0.00 0.00 0.00 53 1014.8
20260508215441 28 332 3.2 11.3 0.00 0.00 0.00 50 1014.9
20260508215338 28 319 3.2 11.3 0.00 0.00 0.00 52 1014.9
20260508215239 28 302 3.2 9.7 0.00 0.00 0.00 52 1014.9
20260508215136 28 302 3.2 9.7 0.00 0.00 0.00 51 1014.9
20260508215034 28 304 1.6 9.7 0.00 0.00 0.00 53 1014.9
20260508214939 28 231 1.6 9.7 0.00 0.00 0.00 51 1014.9
20260508214931 28 231 1.6 9.7 0.00 0.00 0.00 52 1014.9
20260508214831 28 8 1.6 9.7 0.00 0.00 0.00 51 1014.9
20260508214730 28 63 1.6 8.0 0.00 0.00 0.00 51 1014.9
20260508214628 28 53 1.6 8.0 0.00 0.00 0.00 52 1015.0
20260508214525 28 194 1.6 8.0 0.00 0.00 0.00 50 1015.0
20260508214436 28 158 1.6 8.0 0.00 0.00 0.00 51 1015.1
20260508214425 28 198 1.6 8.0 0.00 0.00 0.00 52 1015.1
20260508214325 28 245 1.6 8.0 0.00 0.00 0.00 52 1015.1
20260508214224 28 207 1.6 8.0 0.00 0.00 0.00 53 1015.1
20260508214121 28 222 1.6 8.0 0.00 0.00 0.00 53 1015.1
20260508214014 28 200 1.6 8.0 0.00 0.00 0.00 54 1015.1
20260508213938 28 200 1.6 8.0 0.00 0.00 0.00 53 1015.1
20260508213915 28 200 1.6 8.0 0.00 0.00 0.00 52 1015.1
20260508213814 28 309 1.6 8.0 0.00 0.00 0.00 52 1015.1
20260508213715 28 309 1.6 8.0 0.00 0.00 0.00 51 1015.1
20260508213649 28 65 1.6 4.8 0.00 0.00 0.00 51 1015.2
20260508213614 28 32 1.6 4.8 0.00 0.00 0.00 51 1015.1
20260508213539 28 339 1.6 4.8 0.00 0.00 0.00 51 1015.1
20260508213411 28 1 1.6 4.8 0.00 0.00 0.00 52 1015.2
20260508213309 28 286 1.6 6.4 0.00 0.00 0.00 52 1015.2
20260508213209 28 287 1.6 6.4 0.00 0.00 0.00 52 1015.2
20260508213107 28 287 1.6 6.4 0.00 0.00 0.00 52 1015.2
20260508213002 28 287 1.6 6.4 0.00 0.00 0.00 53 1015.2
20260508212921 28 286 1.6 6.4 0.00 0.00 0.00 52 1015.2
20260508212900 28 232 1.6 6.4 0.00 0.00 0.00 52 1015.2
20260508212801 28 238 1.6 6.4 0.00 0.00 0.00 53 1015.2
20260508212701 28 228 1.6 6.4 0.00 0.00 0.00 53 1015.2
20260508212558 28 314 1.6 6.4 0.00 0.00 0.00 53 1015.2
20260508212457 28 312 1.6 6.4 0.00 0.00 0.00 53 1015.2
20260508212418 28 311 1.6 9.7 0.00 0.00 0.00 53 1015.2
20260508212357 28 309 1.6 9.7 0.00 0.00 0.00 55 1015.2
20260508212257 27 243 1.6 9.7 0.00 0.00 0.00 54 1015.2
20260508212155 27 243 1.6 9.7 0.00 0.00 0.00 55 1015.2
20260508212141 27 345 1.6 9.7 0.00 0.00 0.00 54 1015.3
20260508212051 27 143 1.6 9.7 0.00 0.00 0.00 53 1015.3
20260508212027 27 346 1.6 9.7 0.00 0.00 0.00 53 1015.3
20260508211844 27 343 1.6 9.7 0.00 0.00 0.00 54 1015.3
20260508211745 27 336 1.6 9.7 0.00 0.00 0.00 55 1015.4
20260508211645 27 290 3.2 9.7 0.00 0.00 0.00 54 1015.4
20260508211544 27 318 3.2 9.7 0.00 0.00 0.00 53 1015.4
20260508211438 27 318 3.2 12.9 0.00 0.00 0.00 53 1015.4
20260508211414 27 326 3.2 12.9 0.00 0.00 0.00 55 1015.4
20260508211338 27 304 3.2 12.9 0.00 0.00 0.00 56 1015.4
20260508211239 27 304 3.2 12.9 0.00 0.00 0.00 56 1015.4
20260508211138 27 190 3.2 12.9 0.00 0.00 0.00 55 1015.5
20260508211036 27 319 3.2 12.9 0.00 0.00 0.00 55 1015.5
20260508210915 27 233 3.2 12.9 0.00 0.00 0.00 55 1015.5
20260508210833 27 233 3.2 12.9 0.00 0.00 0.00 54 1015.5
20260508210736 27 236 3.2 12.9 0.00 0.00 0.00 54 1015.4
20260508210633 27 238 3.2 12.9 0.00 0.00 0.00 53 1015.5
20260508210530 27 250 3.2 12.9 0.00 0.00 0.00 54 1015.5
20260508210427 27 210 3.2 9.7 0.00 0.00 0.00 55 1015.5
20260508210413 27 246 3.2 9.7 0.00 0.00 0.00 54 1015.5
20260508210326 27 126 3.2 9.7 0.00 0.00 0.00 55 1015.5
20260508210227 27 302 3.2 9.7 0.00 0.00 0.00 54 1015.5
20260508210136 27 212 1.6 9.7 0.00 0.00 0.00 53 1015.6
20260508210126 27 274 1.6 9.7 0.00 0.00 0.00 55 1015.6
20260508210031 27 271 1.6 9.7 0.00 0.00 0.00 55 1015.6
20260508210022 27 242 1.6 9.7 0.00 0.00 0.00 54 1015.6
20260508205823 27 232 1.6 9.7 0.00 0.00 0.00 53 1015.6
20260508205723 27 232 1.6 9.7 0.00 0.00 0.00 53 1015.6
20260508205621 27 208 3.2 9.7 0.00 0.00 0.00 53 1015.6
20260508205518 27 208 3.2 9.7 0.00 0.00 0.00 54 1015.7
20260508205409 27 233 3.2 9.7 0.00 0.00 0.00 55 1015.6
20260508205313 27 210 3.2 9.7 0.00 0.00 0.00 55 1015.6
20260508205212 27 204 3.2 9.7 0.00 0.00 0.00 55 1015.6
20260508205113 26 188 3.2 9.7 0.00 0.00 0.00 55 1015.6
20260508205012 26 188 3.2 9.7 0.00 0.00 0.00 55 1015.6
20260508204909 26 235 3.2 9.7 0.00 0.00 0.00 55 1015.6
20260508204809 26 148 3.2 9.7 0.00 0.00 0.00 55 1015.6
20260508204709 26 211 3.2 9.7 0.00 0.00 0.00 55 1015.6
20260508204608 26 222 1.6 9.7 0.00 0.00 0.00 56 1015.7
20260508204507 26 300 1.6 9.7 0.00 0.00 0.00 55 1015.7
20260508204408 26 305 3.2 9.7 0.00 0.00 0.00 56 1015.7
20260508204401 26 293 3.2 9.7 0.00 0.00 0.00 56 1015.7
20260508204301 26 314 3.2 9.7 0.00 0.00 0.00 55 1015.7
20260508204201 26 314 3.2 9.7 0.00 0.00 0.00 55 1015.7
20260508204100 26 313 3.2 9.7 0.00 0.00 0.00 54 1015.7
20260508204001 26 314 3.2 9.7 0.00 0.00 0.00 55 1015.7
20260508203907 26 240 3.2 11.3 0.00 0.00 0.00 55 1015.7
20260508203857 26 250 3.2 11.3 0.00 0.00 0.00 55 1015.7
20260508203755 26 232 3.2 11.3 0.00 0.00 0.00 55 1015.7
20260508203655 26 237 3.2 11.3 0.00 0.00 0.00 55 1015.7
20260508203555 26 236 3.2 11.3 0.00 0.00 0.00 53 1015.7
20260508203454 26 238 3.2 11.3 0.00 0.00 0.00 53 1015.8
20260508203405 26 246 3.2 11.3 0.00 0.00 0.00 55 1015.8
20260508203350 26 228 3.2 11.3 0.00 0.00 0.00 55 1015.8
20260508203248 26 136 3.2 11.3 0.00 0.00 0.00 55 1015.8
20260508203149 26 146 3.2 11.3 0.00 0.00 0.00 56 1015.7
20260508203049 26 245 1.6 11.3 0.00 0.00 0.00 55 1015.8
20260508202948 26 208 1.6 8.0 0.00 0.00 0.00 55 1015.8
20260508202905 26 239 1.6 8.0 0.00 0.00 0.00 55 1015.8
20260508202843 26 239 1.6 8.0 0.00 0.00 0.00 55 1015.8
20260508202742 26 239 1.6 8.0 0.00 0.00 0.00 56 1015.9
20260508202643 26 238 1.6 8.0 0.00 0.00 0.00 55 1015.9
20260508202542 26 239 3.2 11.3 0.00 0.00 0.00 54 1015.9
20260508202442 26 319 1.6 11.3 0.00 0.00 0.00 56 1015.8
20260508202405 26 353 1.6 11.3 0.00 0.00 0.00 55 1015.8
20260508202339 26 207 1.6 11.3 0.00 0.00 0.00 55 1015.9
20260508202238 26 231 1.6 11.3 0.00 0.00 0.00 56 1015.8
20260508202138 26 346 3.2 11.3 0.00 0.00 0.00 56 1015.9
20260508202038 26 307 3.2 11.3 0.00 0.00 0.00 55 1015.9
20260508201936 26 302 3.2 11.3 0.00 0.00 0.00 55 1015.9
20260508201904 26 307 3.2 11.3 0.00 0.00 0.00 55 1015.9
20260508201831 26 301 3.2 11.3 0.00 0.00 0.00 56 1015.9
20260508201732 26 295 3.2 11.3 0.00 0.00 0.00 55 1015.9
20260508201633 26 229 1.6 11.3 0.00 0.00 0.00 54 1015.9
20260508201625 26 223 1.6 11.3 0.00 0.00 0.00 56 1015.9
20260508201531 26 207 1.6 11.3 0.00 0.00 0.00 55 1015.9
20260508201517 26 222 1.6 11.3 0.00 0.00 0.00 56 1015.9
20260508201327 26 223 1.6 11.3 0.00 0.00 0.00 56 1015.9
20260508201226 26 212 1.6 11.3 0.00 0.00 0.00 55 1015.9
20260508201127 26 208 1.6 11.3 0.00 0.00 0.00 56 1016.0
20260508201027 25 221 1.6 11.3 0.00 0.00 0.00 56 1016.0
20260508200905 25 309 1.6 11.3 0.00 0.00 0.00 57 1016.0
20260508200823 25 278 1.6 11.3 0.00 0.00 0.00 58 1016.0
20260508200723 25 277 1.6 11.3 0.00 0.00 0.00 58 1016.0
20260508200623 25 146 3.2 11.3 0.00 0.00 0.00 57 1016.1
20260508200521 25 146 3.2 11.3 0.00 0.00 0.00 57 1016.1
20260508200406 25 231 3.2 11.3 0.00 0.00 0.00 56 1016.1
20260508200313 25 236 3.2 11.3 0.00 0.00 0.00 58 1016.2
20260508200213 25 333 3.2 11.3 0.00 0.00 0.00 57 1016.1
20260508200113 25 319 3.2 11.3 0.00 0.00 0.00 56 1016.1
20260508200012 25 311 3.2 9.7 0.00 0.00 0.00 57 1016.1
20260508195914 25 148 3.2 11.3 0.00 0.00 0.00 58 1016.2
20260508195903 25 148 3.2 11.3 0.00 0.00 0.00 58 1016.2
20260508195809 25 139 4.8 11.3 0.00 0.00 0.00 59 1016.2
20260508195707 25 139 4.8 11.3 0.00 0.00 0.00 58 1016.2
20260508195606 25 138 4.8 11.3 0.00 0.00 0.00 57 1016.3
20260508195507 25 235 4.8 11.3 0.00 0.00 0.00 56 1016.3
20260508195406 25 211 4.8 11.3 0.00 0.00 0.00 57 1016.2
20260508195259 25 139 4.8 11.3 0.00 0.00 0.00 57 1016.3
20260508195158 25 204 4.8 11.3 0.00 0.00 0.00 56 1016.3
20260508195059 25 269 4.8 11.3 0.00 0.00 0.00 58 1016.2
20260508194959 25 238 4.8 14.5 0.00 0.00 0.00 57 1016.2
20260508194858 25 257 4.8 14.5 0.00 0.00 0.00 57 1016.2
20260508194753 24 248 4.8 14.5 0.00 0.00 0.00 58 1016.3
20260508194652 24 131 4.8 14.5 0.00 0.00 0.00 57 1016.2
20260508194553 24 219 4.8 14.5 0.00 0.00 0.00 58 1016.3
20260508194453 24 222 4.8 14.5 0.00 0.00 0.00 58 1016.2
20260508194401 24 219 4.8 14.5 0.00 0.00 0.00 57 1016.3
20260508194353 24 195 4.8 14.5 0.00 0.00 0.00 57 1016.3
20260508194253 24 236 3.2 14.5 0.00 0.00 0.00 57 1016.3
20260508194147 25 255 3.2 14.5 0.00 0.00 0.00 57 1016.3
20260508194120 25 241 1.6 9.7 0.00 0.00 0.00 58 1016.3
20260508194047 25 235 3.2 14.5 0.00 0.00 0.00 57 1016.3
20260508194010 25 238 1.6 9.7 0.00 0.00 0.00 58 1016.3
20260508193846 25 167 1.6 9.7 0.00 0.00 0.00 57 1016.4
20260508193743 25 233 1.6 9.7 0.00 0.00 0.00 57 1016.4
20260508193640 25 229 1.6 9.7 0.00 0.00 0.00 57 1016.4
20260508193541 25 228 1.6 9.7 0.00 0.00 0.00 57 1016.4
20260508193441 25 239 1.6 6.4 0.00 0.00 0.00 58 1016.4
20260508193358 24 340 1.6 11.3 0.00 0.00 0.00 58 1016.4
20260508193341 24 340 1.6 11.3 0.00 0.00 0.00 59 1016.4
20260508193241 24 343 3.2 11.3 0.00 0.00 0.00 60 1016.5
20260508193138 24 343 3.2 11.3 0.00 0.00 0.00 60 1016.4
20260508193040 24 343 3.2 11.3 0.00 0.00 0.00 60 1016.4
20260508192937 23 337 3.2 11.3 0.00 0.00 0.00 60 1016.5
20260508192856 23 337 3.2 11.3 0.00 0.00 0.00 61 1016.5
20260508192834 23 338 4.8 11.3 0.00 0.00 0.00 61 1016.4
20260508192729 23 146 4.8 11.3 0.00 0.00 0.00 61 1016.5
20260508192629 23 236 4.8 11.3 0.00 0.00 0.00 61 1016.5
20260508192529 23 236 4.8 11.3 0.00 0.00 0.00 60 1016.5
20260508192429 23 248 4.8 11.3 0.00 0.00 0.00 59 1016.5
20260508192356 23 219 4.8 11.3 0.00 0.00 0.00 59 1016.5
20260508192328 23 229 3.2 11.3 0.00 0.00 0.00 60 1016.5
20260508192223 23 229 3.2 8.0 0.00 0.00 0.00 59 1016.4
20260508192123 23 273 3.2 8.0 0.00 0.00 0.00 60 1016.4
20260508192022 23 139 3.2 8.0 0.00 0.00 0.00 59 1016.5
20260508191923 23 205 3.2 8.0 0.00 0.00 0.00 59 1016.5
20260508191857 23 229 3.2 9.7 0.00 0.00 0.00 58 1016.5
20260508191822 23 223 3.2 14.5 0.00 0.00 0.00 59 1016.5
20260508191719 23 218 3.2 14.5 0.00 0.00 0.00 61 1016.5
20260508191617 23 238 3.2 14.5 0.00 0.00 0.00 60 1016.5
20260508191516 23 217 3.2 14.5 0.00 0.00 0.00 61 1016.5
20260508191417 23 344 3.2 14.5 0.00 0.00 0.00 61 1016.5
20260508191356 23 204 3.2 14.5 0.00 0.00 0.00 61 1016.5
20260508191316 23 203 3.2 14.5 0.00 0.00 0.00 61 1016.5
20260508191216 23 266 3.2 14.5 0.00 0.00 0.00 61 1016.5
20260508191115 23 266 3.2 14.5 0.00 0.00 0.00 61 1016.5
20260508191014 23 268 3.2 14.5 0.00 0.00 0.00 61 1016.5
20260508190913 23 217 3.2 14.5 0.00 0.00 0.00 60 1016.6
20260508190856 23 243 3.2 14.5 0.00 0.00 0.00 61 1016.6
20260508190810 23 245 1.6 14.5 0.00 0.00 0.00 61 1016.6
20260508190705 23 283 1.6 14.5 0.00 0.00 0.00 59 1016.7
20260508190605 23 224 1.6 14.5 0.00 0.00 0.00 61 1016.7
20260508190505 23 266 1.6 14.5 0.00 0.00 0.00 60 1016.7
20260508190404 23 222 1.6 8.0 0.00 0.00 0.00 62 1016.7
20260508190353 23 239 1.6 8.0 0.00 0.00 0.00 62 1016.7
20260508190305 23 235 1.6 8.0 0.00 0.00 0.00 62 1016.7
20260508190205 23 235 3.2 8.0 0.00 0.00 0.00 62 1016.7
20260508190103 23 235 3.2 9.7 0.00 0.00 0.00 62 1016.7
20260508190003 23 235 3.2 9.7 0.00 0.00 0.00 63 1016.7
20260508185902 22 226 3.2 9.7 0.00 0.00 0.00 63 1016.7
20260508185852 22 225 3.2 9.7 0.00 0.00 0.00 63 1016.7
20260508185758 22 239 3.2 9.7 0.00 0.00 0.00 63 1016.7
20260508185654 22 268 3.2 9.7 0.00 0.00 0.00 62 1016.8
20260508185555 22 195 3.2 9.7 0.00 0.00 0.00 61 1016.8
20260508185455 22 160 3.2 9.7 0.00 0.00 0.00 61 1016.8
20260508185357 22 121 3.2 9.7 0.00 0.00 0.00 62 1016.8
20260508185252 23 222 3.2 9.7 0.00 0.00 0.00 60 1016.8
20260508185149 23 231 1.6 9.7 0.00 0.00 0.00 60 1016.8
20260508185047 23 212 1.6 9.7 0.00 0.00 0.00 60 1016.8
20260508184946 23 333 1.6 9.7 0.00 0.00 0.00 62 1016.7
20260508184853 23 358 1.6 9.7 0.00 0.00 0.00 62 1016.8
20260508184847 23 1 1.6 9.7 0.00 0.00 0.00 62 1016.8
20260508184746 23 298 1.6 9.7 0.00 0.00 0.00 62 1016.8
20260508184640 23 298 1.6 9.7 0.00 0.00 0.00 62 1016.8
20260508184541 22 293 1.6 9.7 0.00 0.00 0.00 61 1016.8
20260508184441 22 222 1.6 9.7 0.00 0.00 0.00 62 1016.9
20260508184353 22 211 1.6 9.7 0.00 0.00 0.00 63 1016.9
20260508184341 22 146 1.6 9.7 0.00 0.00 0.00 63 1016.9
20260508184240 22 317 1.6 9.7 0.00 0.00 0.00 63 1016.9
20260508184137 22 318 1.6 9.7 0.00 0.00 0.00 64 1017.0
20260508184036 22 317 1.6 9.7 0.00 0.00 0.00 64 1016.9
20260508183937 22 231 3.2 9.7 0.00 0.00 0.00 64 1017.0
20260508183852 21 82 3.2 9.7 0.00 0.00 0.00 64 1017.0
20260508183837 21 64 3.2 9.7 0.00 0.00 0.00 64 1017.0
20260508183737 21 164 3.2 11.3 0.00 0.00 0.00 65 1017.0
20260508183637 21 163 4.8 11.3 0.00 0.00 0.00 65 1017.0
20260508183535 21 232 4.8 12.9 0.00 0.00 0.00 65 1017.1
20260508183435 21 248 4.8 12.9 0.00 0.00 0.00 66 1017.1
20260508183353 21 248 4.8 12.9 0.00 0.00 0.00 66 1017.1
20260508183335 21 248 4.8 12.9 0.00 0.00 0.00 66 1017.0
20260508183236 21 236 4.8 12.9 0.00 0.00 0.00 66 1017.1
20260508183134 21 233 4.8 12.9 0.00 0.00 0.00 66 1017.1
20260508183035 21 217 4.8 12.9 0.00 0.00 0.00 65 1017.1
20260508182937 21 221 4.8 12.9 0.00 0.00 0.00 65 1017.1
20260508182851 21 219 4.8 12.9 0.00 0.00 0.00 66 1017.1
20260508182835 21 198 4.8 12.9 0.00 0.00 0.00 66 1017.1
20260508182734 21 214 4.8 12.9 0.00 0.00 0.00 66 1017.1
20260508182634 21 204 4.8 12.9 0.00 0.00 0.00 65 1017.1
20260508182534 21 262 4.8 11.3 0.00 0.00 0.00 66 1017.1
20260508182429 21 232 4.8 11.3 0.00 0.00 0.00 64 1017.1
20260508182349 21 236 4.8 11.3 0.00 0.00 0.00 64 1017.1
20260508182328 21 219 3.2 11.3 0.00 0.00 0.00 64 1017.1
20260508182233 21 236 3.2 11.3 0.00 0.00 0.00 65 1017.1
20260508182129 21 259 3.2 8.0 0.00 0.00 0.00 66 1017.1
20260508182028 21 253 4.8 11.3 0.00 0.00 0.00 66 1017.1
20260508181923 21 250 4.8 16.1 0.00 0.00 0.00 65 1017.1
20260508181844 21 264 4.8 16.1 0.00 0.00 0.00 65 1017.1
20260508181823 21 246 4.8 16.1 0.00 0.00 0.00 66 1017.1
20260508181723 20 215 4.8 16.1 0.00 0.00 0.00 66 1017.1
20260508181623 20 235 4.8 16.1 0.00 0.00 0.00 65 1017.1
20260508181522 20 218 4.8 16.1 0.00 0.00 0.00 66 1017.1
20260508181416 20 224 4.8 16.1 0.00 0.00 0.00 66 1017.1
20260508181338 20 143 3.2 16.1 0.00 0.00 0.00 66 1017.1
20260508181317 20 198 3.2 16.1 0.00 0.00 0.00 67 1017.1
20260508181216 20 243 3.2 16.1 0.00 0.00 0.00 65 1017.1
20260508181117 20 224 3.2 16.1 0.00 0.00 0.00 65 1017.1
20260508181016 20 190 3.2 16.1 0.00 0.00 0.00 65 1017.2
20260508180915 21 250 3.2 11.3 0.00 0.00 0.00 64 1017.2
20260508180832 21 226 3.2 11.3 0.00 0.00 0.00 65 1017.2
20260508180814 21 243 3.2 8.0 0.00 0.00 0.00 66 1017.2
20260508180715 21 238 3.2 8.0 0.00 0.00 0.00 66 1017.2
20260508180613 21 295 3.2 8.0 0.00 0.00 0.00 66 1017.1
20260508180510 20 229 3.2 8.0 0.00 0.00 0.00 66 1017.1
20260508180407 20 228 3.2 8.0 0.00 0.00 0.00 67 1017.2
20260508180326 20 266 3.2 8.0 0.00 0.00 0.00 67 1017.2
20260508180305 20 225 3.2 8.0 0.00 0.00 0.00 68 1017.2
20260508180204 20 248 3.2 8.0 0.00 0.00 0.00 68 1017.2
20260508180105 20 180 3.2 8.0 0.00 0.00 0.00 67 1017.1
20260508180005 20 229 3.2 9.7 0.00 0.00 0.00 67 1017.2
20260508175903 20 181 3.2 9.7 0.00 0.00 0.00 67 1017.1
20260508175821 20 193 3.2 9.7 0.00 0.00 0.00 68 1017.1
20260508175802 20 230 3.2 9.7 0.00 0.00 0.00 67 1017.1
20260508175700 20 224 3.2 9.7 0.00 0.00 0.00 69 1017.1
20260508175601 20 273 3.2 9.7 0.00 0.00 0.00 69 1017.1
20260508175458 20 291 4.8 9.7 0.00 0.00 0.00 69 1017.1
20260508175357 20 196 4.8 9.7 0.00 0.00 0.00 68 1017.1
20260508175315 20 139 4.8 9.7 0.00 0.00 0.00 68 1017.1
20260508175257 20 139 4.8 9.7 0.00 0.00 0.00 68 1017.1
20260508175158 20 149 4.8 11.3 0.00 0.00 0.00 68 1017.1
20260508175055 20 187 4.8 11.3 0.00 0.00 0.00 69 1017.1
20260508175025 20 233 4.8 11.3 0.00 0.00 0.00 68 1017.1
20260508174953 19 141 4.8 11.3 0.00 0.00 0.00 69 1017.1
20260508174919 20 250 4.8 11.3 0.00 0.00 0.00 68 1017.1
20260508174747 20 225 4.8 11.3 0.00 0.00 0.00 69 1017.1
20260508174647 20 230 4.8 11.3 0.00 0.00 0.00 68 1017.1
20260508174547 20 280 4.8 11.3 0.00 0.00 0.00 68 1017.1
20260508174446 20 242 4.8 11.3 0.00 0.00 0.00 69 1017.1
20260508174340 20 120 4.8 11.3 0.00 0.00 0.00 69 1017.1
20260508174302 20 139 4.8 11.3 0.00 0.00 0.00 68 1017.1
20260508174241 20 131 3.2 11.3 0.00 0.00 0.00 69 1017.1
20260508174141 20 146 3.2 11.3 0.00 0.00 0.00 69 1017.1
20260508174040 20 156 3.2 11.3 0.00 0.00 0.00 69 1017.2
20260508173941 20 125 3.2 11.3 0.00 0.00 0.00 69 1017.2
20260508173839 19 148 3.2 8.0 0.00 0.00 0.00 70 1017.2
20260508173756 19 240 3.2 8.0 0.00 0.00 0.00 69 1017.2
20260508173739 19 239 3.2 8.0 0.00 0.00 0.00 69 1017.3
20260508173639 19 239 1.6 8.0 0.00 0.00 0.00 69 1017.2
20260508173537 19 238 1.6 8.0 0.00 0.00 0.00 69 1017.3
20260508173434 19 250 3.2 8.0 0.00 0.00 0.00 70 1017.3
20260508173330 19 246 3.2 8.0 0.00 0.00 0.00 70 1017.3
20260508173250 19 16 3.2 8.0 0.00 0.00 0.00 69 1017.3
20260508173229 19 256 1.6 8.0 0.00 0.00 0.00 69 1017.3
20260508173129 19 215 1.6 8.0 0.00 0.00 0.00 69 1017.3
20260508173029 19 280 1.6 8.0 0.00 0.00 0.00 69 1017.3
20260508172928 19 228 1.6 8.0 0.00 0.00 0.00 70 1017.3
20260508172827 19 95 1.6 8.0 0.00 0.00 0.00 70 1017.3
20260508172745 19 231 1.6 8.0 0.00 0.00 0.00 70 1017.3
20260508172730 19 230 1.6 8.0 0.00 0.00 0.00 70 1017.3
20260508172627 19 231 1.6 8.0 0.00 0.00 0.00 72 1017.3
20260508172525 19 238 1.6 8.0 0.00 0.00 0.00 71 1017.3
20260508172422 18 250 1.6 8.0 0.00 0.00 0.00 72 1017.3
20260508172321 18 212 1.6 4.8 0.00 0.00 0.00 72 1017.2
20260508172221 18 238 1.6 3.2 0.00 0.00 0.00 72 1017.3
20260508172120 18 238 1.6 4.8 0.00 0.00 0.00 73 1017.3
20260508172019 18 239 1.6 9.7 0.00 0.00 0.00 73 1017.3
20260508171916 18 228 3.2 14.5 0.00 0.00 0.00 73 1017.3
20260508171817 18 228 3.2 14.5 0.00 0.00 0.00 73 1017.3
20260508171715 18 207 3.2 14.5 0.00 0.00 0.00 74 1017.3
20260508171612 18 231 3.2 14.5 0.00 0.00 0.00 73 1017.3
20260508171513 18 232 3.2 14.5 0.00 0.00 0.00 74 1017.3
20260508171410 18 233 3.2 14.5 0.00 0.00 0.00 74 1017.3
20260508171308 18 233 3.2 14.5 0.00 0.00 0.00 74 1017.3
20260508171209 18 233 3.2 14.5 0.00 0.00 0.00 73 1017.3
20260508171109 18 200 3.2 14.5 0.00 0.00 0.00 72 1017.4
20260508171006 18 223 3.2 14.5 0.00 0.00 0.00 72 1017.4
20260508170907 18 221 1.6 11.3 0.00 0.00 0.00 72 1017.3
20260508170807 18 187 1.6 11.3 0.00 0.00 0.00 73 1017.4
20260508170720 18 241 3.2 11.3 0.00 0.00 0.00 74 1017.4
20260508170706 18 218 3.2 11.3 0.00 0.00 0.00 74 1017.4
20260508170607 18 169 3.2 11.3 0.00 0.00 0.00 74 1017.4
20260508170505 18 169 3.2 11.3 0.00 0.00 0.00 75 1017.4
20260508170405 18 128 3.2 11.3 0.00 0.00 0.00 75 1017.4
20260508170305 17 243 3.2 11.3 0.00 0.00 0.00 75 1017.4
20260508170213 17 229 3.2 11.3 0.00 0.00 0.00 75 1017.4
20260508170205 17 229 3.2 11.3 0.00 0.00 0.00 75 1017.4
20260508170103 17 274 3.2 11.3 0.00 0.00 0.00 75 1017.4
20260508170004 17 241 3.2 11.3 0.00 0.00 0.00 75 1017.4
20260508165903 17 207 4.8 11.3 0.00 0.00 0.00 75 1017.4
20260508165802 17 252 4.8 11.3 0.00 0.00 0.00 76 1017.4
20260508165714 17 151 4.8 11.3 0.00 0.00 0.00 77 1017.3
20260508165703 17 153 4.8 11.3 0.00 0.00 0.00 77 1017.3
20260508165602 17 238 4.8 11.3 0.00 0.00 0.00 77 1017.3
20260508165504 17 200 4.8 11.3 0.00 0.00 0.00 78 1017.3
20260508165403 17 249 4.8 11.3 0.00 0.00 0.00 77 1017.3
20260508165306 17 194 4.8 11.3 0.00 0.00 0.00 76 1017.3
20260508165216 17 228 4.8 11.3 0.00 0.00 0.00 76 1017.4
20260508165202 17 228 4.8 11.3 0.00 0.00 0.00 76 1017.4
20260508165057 17 228 4.8 11.3 0.00 0.00 0.00 76 1017.4
20260508164957 17 235 4.8 11.3 0.00 0.00 0.00 75 1017.4
20260508164857 17 248 3.2 11.3 0.00 0.00 0.00 76 1017.4
20260508164758 17 238 3.2 9.7 0.00 0.00 0.00 77 1017.3
20260508164714 17 147 3.2 9.7 0.00 0.00 0.00 77 1017.4
20260508164656 17 217 3.2 9.7 0.00 0.00 0.00 77 1017.4
20260508164553 17 224 3.2 11.3 0.00 0.00 0.00 76 1017.4
20260508164452 17 228 3.2 11.3 0.00 0.00 0.00 77 1017.4
20260508164352 17 248 3.2 11.3 0.00 0.00 0.00 77 1017.3
20260508164253 17 239 3.2 11.3 0.00 0.00 0.00 77 1017.4
20260508164213 17 222 3.2 11.3 0.00 0.00 0.00 77 1017.3
20260508164150 17 274 3.2 11.3 0.00 0.00 0.00 77 1017.3
20260508164044 17 193 3.2 11.3 0.00 0.00 0.00 77 1017.4
20260508163945 17 217 3.2 11.3 0.00 0.00 0.00 77 1017.3
20260508163744 17 232 3.2 11.3 0.00 0.00 0.00 76 1017.3
20260508163717 17 218 3.2 11.3 0.00 0.00 0.00 76 1017.3
20260508163644 17 236 1.6 11.3 0.00 0.00 0.00 77 1017.3
20260508163538 17 243 1.6 8.0 0.00 0.00 0.00 79 1017.2
20260508163439 17 124 3.2 8.0 0.00 0.00 0.00 79 1017.3
20260508163338 17 207 3.2 8.0 0.00 0.00 0.00 78 1017.2
20260508163239 17 138 3.2 8.0 0.00 0.00 0.00 79 1017.3
20260508163215 17 235 3.2 8.0 0.00 0.00 0.00 79 1017.3
20260508163140 16 219 3.2 8.0 0.00 0.00 0.00 79 1017.2
20260508163037 16 133 3.2 8.0 0.00 0.00 0.00 79 1017.3
20260508162937 16 226 3.2 8.0 0.00 0.00 0.00 79 1017.3
20260508162836 16 226 3.2 8.0 0.00 0.00 0.00 79 1017.3
20260508162713 16 233 3.2 8.0 0.00 0.00 0.00 79 1017.3
20260508162632 16 222 3.2 8.0 0.00 0.00 0.00 79 1017.3
20260508162527 16 222 3.2 8.0 0.00 0.00 0.00 79 1017.3
20260508162427 16 231 3.2 8.0 0.00 0.00 0.00 79 1017.3
20260508162327 16 222 3.2 8.0 0.00 0.00 0.00 79 1017.3
20260508162227 16 226 3.2 8.0 0.00 0.00 0.00 79 1017.4
20260508162212 16 204 3.2 8.0 0.00 0.00 0.00 79 1017.4
20260508162126 16 246 3.2 8.0 0.00 0.00 0.00 80 1017.4
20260508162020 16 207 3.2 8.0 0.00 0.00 0.00 81 1017.4
20260508161921 16 177 4.8 9.7 0.00 0.00 0.00 81 1017.4
20260508161820 16 110 4.8 9.7 0.00 0.00 0.00 81 1017.4
20260508161729 16 133 4.8 9.7 0.00 0.00 0.00 81 1017.4
20260508161712 16 132 4.8 9.7 0.00 0.00 0.00 80 1017.4
20260508161620 16 136 4.8 9.7 0.00 0.00 0.00 81 1017.3
20260508161516 16 176 4.8 9.7 0.00 0.00 0.00 81 1017.3
20260508161415 16 155 4.8 9.7 0.00 0.00 0.00 81 1017.3
20260508161314 16 128 4.8 9.7 0.00 0.00 0.00 81 1017.3
20260508161220 16 158 4.8 9.7 0.00 0.00 0.00 81 1017.3
20260508161210 16 159 4.8 9.7 0.00 0.00 0.00 81 1017.3
20260508161114 16 198 4.8 9.7 0.00 0.00 0.00 81 1017.3
20260508161011 16 135 3.2 9.7 0.00 0.00 0.00 80 1017.3